CW0099 Weather Reports


time (UTC)temp
F
wind
direction
speed
knots
gust
knots
rain 1hr
in
rain 24hr
in
rain mn
in
humidity
%
barometer
mb
20220525132253 67 178 5.2 0.0 0.00 0.00 0.00 100 1009.6
20220525132155 67 157 4.3 0.0 0.00 0.00 0.00 100 1009.7
20220525132054 67 178 4.3 0.0 0.00 0.00 0.00 100 1009.7
20220525131955 67 146 4.3 0.0 0.00 0.00 0.00 100 1009.7
20220525131853 67 142 0.9 0.0 0.00 0.00 0.00 100 1009.8
20220525131753 67 172 7.0 0.0 0.00 0.00 0.00 100 1009.7
20220525131652 67 160 7.8 0.0 0.00 0.00 0.00 100 1009.8
20220525131551 67 145 5.2 0.0 0.00 0.00 0.00 100 1009.7
20220525131455 67 161 7.8 0.0 0.00 0.00 0.00 100 1009.8
20220525131356 67 136 2.6 0.0 0.00 0.00 0.00 100 1009.8
20220525131258 67 151 3.5 0.0 0.00 0.00 0.00 100 1009.6
20220525131157 67 136 6.1 0.0 0.00 0.00 0.00 100 1009.7
20220525131057 67 161 2.6 0.0 0.00 0.00 0.00 100 1009.5
20220525130957 67 159 0.9 0.0 0.00 0.00 0.00 100 1009.5
20220525130902 67 133 1.7 0.0 0.00 0.00 0.00 100 1009.5
20220525130802 67 117 2.6 0.0 0.00 0.00 0.00 100 1009.5
20220525130704 67 177 4.3 0.0 0.00 0.00 0.00 100 1009.4
20220525130605 67 147 9.6 0.0 0.00 0.00 0.00 100 1009.5
20220525130506 67 154 4.3 0.0 0.00 0.00 0.00 100 1009.4
20220525130407 67 131 6.1 0.0 0.00 0.00 0.00 100 1009.4
20220525130251 67 152 7.8 0.0 0.00 0.00 0.00 100 1009.4
20220525130151 67 160 2.6 0.0 0.00 0.00 0.00 100 1009.5
20220525130052 67 149 0.9 0.0 0.00 0.00 0.00 100 1009.4
20220525125952 67 138 2.6 0.0 0.00 0.00 0.00 100 1009.4
20220525125853 67 143 6.1 0.0 0.00 0.00 0.00 100 1009.5
20220525125753 67 169 0.0 0.0 0.00 0.00 0.00 100 1009.5
20220525125653 67 152 4.3 0.0 0.00 0.00 0.00 100 1009.5
20220525125557 67 148 5.2 0.0 0.00 0.00 0.00 100 1009.5
20220525125455 67 161 4.3 0.0 0.00 0.00 0.00 100 1009.5
20220525125356 67 187 0.9 0.0 0.00 0.00 0.00 100 1009.5
20220525125257 67 186 2.6 0.0 0.00 0.00 0.00 100 1009.5
20220525125156 67 151 4.3 0.0 0.00 0.00 0.00 100 1009.4
20220525125058 67 173 0.0 0.0 0.00 0.00 0.00 100 1009.4
20220525125002 67 175 4.3 0.0 0.00 0.00 0.00 100 1009.4
20220525124900 67 156 7.0 0.0 0.00 0.00 0.00 100 1009.5
20220525124802 67 138 2.6 0.0 0.00 0.00 0.00 100 1009.6
20220525124701 67 160 2.6 0.0 0.00 0.00 0.00 100 1009.6
20220525124602 67 179 6.1 0.0 0.00 0.00 0.00 100 1009.6
20220525124503 67 159 0.0 0.0 0.00 0.00 0.00 100 1009.6
20220525124401 67 149 5.2 0.0 0.00 0.00 0.00 100 1009.5
20220525124304 67 155 2.6 0.0 0.00 0.00 0.00 100 1009.5
20220525124206 67 150 0.9 0.0 0.00 0.00 0.00 100 1009.5
20220525124104 66 163 0.9 0.0 0.00 0.00 0.00 100 1009.4
20220525124004 66 170 3.5 0.0 0.00 0.00 0.00 100 1009.5
20220525123904 66 156 2.6 0.0 0.00 0.00 0.00 100 1009.5
20220525123804 66 165 2.6 0.0 0.00 0.00 0.00 100 1009.5
20220525123648 66 137 1.7 0.0 0.00 0.00 0.00 100 1009.4
20220525123609 66 155 3.5 0.0 0.00 0.00 0.00 100 1009.4
20220525123446 66 170 1.7 0.0 0.00 0.00 0.00 100 1009.5
20220525123406 66 171 3.5 0.0 0.00 0.00 0.00 100 1009.6
20220525123246 66 132 0.9 0.0 0.00 0.00 0.00 100 1009.3
20220525123148 66 162 3.5 0.0 0.00 0.00 0.00 100 1009.5
20220525123051 66 122 5.2 0.0 0.00 0.00 0.00 100 1009.5
20220525122950 66 114 0.0 0.0 0.00 0.00 0.00 100 1009.3
20220525122850 66 115 0.0 0.0 0.00 0.00 0.00 100 1009.5
20220525122751 66 142 4.3 0.0 0.00 0.00 0.00 100 1009.5
20220525122650 66 173 1.7 0.0 0.00 0.00 0.00 100 1009.4
20220525122550 66 122 3.5 0.0 0.00 0.00 0.00 100 1009.5
20220525122449 66 140 4.3 0.0 0.00 0.00 0.00 100 1009.4
20220525122353 66 158 5.2 0.0 0.00 0.00 0.00 100 1009.3
20220525122253 66 157 0.9 0.0 0.00 0.00 0.00 100 1009.6
20220525122152 66 142 3.5 0.0 0.00 0.00 0.00 100 1009.4
20220525122052 66 114 0.0 0.0 0.00 0.00 0.00 100 1009.5
20220525121953 66 114 0.0 0.0 0.00 0.00 0.00 100 1009.4
20220525121852 66 114 1.7 0.0 0.00 0.00 0.00 100 1009.5
20220525121756 66 134 0.0 0.0 0.00 0.00 0.00 100 1009.6
20220525121701 66 139 2.6 0.0 0.00 0.00 0.00 100 1009.5
20220525121557 66 139 2.6 0.0 0.00 0.00 0.00 100 1009.6
20220525121457 66 139 0.0 0.0 0.00 0.00 0.00 100 1009.5
20220525121357 66 142 1.7 0.0 0.00 0.00 0.00 100 1009.5
20220525121257 66 131 0.0 0.0 0.00 0.00 0.00 100 1009.4
20220525121157 66 131 0.0 0.0 0.00 0.00 0.00 100 1009.5
20220525121103 66 131 2.6 0.0 0.00 0.00 0.00 100 1009.4
20220525121004 66 129 6.1 0.0 0.00 0.00 0.00 100 1009.5
20220525120903 66 185 0.0 0.0 0.00 0.00 0.00 100 1009.4
20220525120803 66 102 0.0 0.0 0.00 0.00 0.00 100 1009.5
20220525120702 66 141 2.6 0.0 0.00 0.00 0.00 100 1009.5
20220525120600 66 146 3.5 0.0 0.00 0.00 0.00 100 1009.6
20220525120502 66 159 8.7 0.0 0.00 0.00 0.00 100 1009.6
20220525120404 66 124 7.8 0.0 0.00 0.00 0.00 100 1009.7
20220525120303 66 158 11.3 0.0 0.00 0.00 0.00 100 1009.7
20220525120203 66 177 2.6 0.0 0.00 0.00 0.00 100 1009.6
20220525120104 66 149 2.6 0.0 0.00 0.00 0.00 100 1009.6
20220525120002 66 120 0.0 0.0 0.00 0.00 0.00 100 1009.6
20220525115847 66 120 2.6 0.0 0.00 0.00 0.00 100 1009.5
20220525115747 66 161 3.5 0.0 0.00 0.00 0.00 100 1009.4
20220525115648 66 147 4.3 0.0 0.00 0.00 0.00 100 1009.5
20220525115549 66 111 2.6 0.0 0.00 0.00 0.00 100 1009.5
20220525115449 66 153 5.2 0.0 0.00 0.00 0.00 100 1009.5
20220525115350 66 153 2.6 0.0 0.00 0.00 0.00 100 1009.6
20220525115250 66 158 10.4 0.0 0.00 0.00 0.00 100 1009.4
20220525115153 66 136 6.1 0.0 0.00 0.00 0.00 100 1009.4
20220525115052 66 198 3.5 0.0 0.00 0.00 0.00 100 1009.5
20220525114951 66 151 2.6 0.0 0.00 0.00 0.00 100 1009.3
20220525114850 66 137 7.0 0.0 0.00 0.00 0.00 100 1009.4
20220525114750 66 130 6.1 0.0 0.00 0.00 0.00 100 1009.4
20220525114650 66 161 7.0 0.0 0.00 0.00 0.00 100 1009.5
20220525114553 66 159 1.7 0.0 0.00 0.00 0.00 100 1009.5
20220525114455 66 147 5.2 0.0 0.00 0.00 0.00 100 1009.2
20220525114354 66 142 0.9 0.0 0.00 0.00 0.00 100 1009.2
20220525114253 66 132 3.5 0.0 0.00 0.00 0.00 100 1009.3
20220525114155 66 152 4.3 0.0 0.00 0.00 0.00 100 1009.1
20220525114056 66 150 5.2 0.0 0.00 0.00 0.00 100 1009.1
20220525113955 66 147 0.0 0.0 0.00 0.00 0.00 100 1009.1
20220525113900 66 163 2.6 0.0 0.00 0.00 0.00 100 1009.1
20220525113758 66 140 0.0 0.0 0.00 0.00 0.00 100 1009.2
20220525113656 66 150 3.5 0.0 0.00 0.00 0.00 100 1009.1
20220525113555 66 148 0.0 0.0 0.00 0.00 0.00 100 1009.1
20220525113456 66 148 2.6 0.0 0.00 0.00 0.00 100 1009.2
20220525113354 66 150 0.0 0.0 0.00 0.00 0.00 100 1009.2
20220525113258 66 148 0.0 0.0 0.00 0.00 0.00 100 1009.1
20220525113158 66 130 5.2 0.0 0.00 0.00 0.00 100 1009.0
20220525113059 66 141 0.0 0.0 0.00 0.00 0.00 100 1009.1
20220525112958 66 141 0.0 0.0 0.00 0.00 0.00 100 1009.1
20220525112859 66 146 2.6 0.0 0.00 0.00 0.00 100 1009.1
20220525112759 66 163 3.5 0.0 0.00 0.00 0.00 100 1009.1
20220525112658 66 163 0.0 0.0 0.00 0.00 0.00 100 1009.0
20220525112602 66 121 2.6 0.0 0.00 0.00 0.00 100 1009.1
20220525112501 66 154 2.6 0.0 0.00 0.00 0.00 100 1008.9
20220525112401 66 146 2.6 0.0 0.00 0.00 0.00 100 1009.0
20220525112301 66 126 5.2 0.0 0.00 0.00 0.00 100 1008.9
20220525112201 66 134 3.5 0.0 0.00 0.00 0.00 100 1008.9
20220525112100 66 143 0.0 0.0 0.00 0.00 0.00 100 1008.9
20220525112004 66 140 4.3 0.0 0.00 0.00 0.00 100 1008.7
20220525111904 66 135 5.2 0.0 0.00 0.00 0.00 100 1008.9
20220525111805 66 137 4.3 0.0 0.00 0.00 0.00 100 1008.7
20220525111705 66 149 2.6 0.0 0.00 0.00 0.00 100 1008.7
20220525111603 66 149 0.0 0.0 0.00 0.00 0.00 100 1008.8
20220525111504 66 149 0.0 0.0 0.00 0.00 0.00 100 1008.9
20220525111348 66 130 0.0 0.0 0.00 0.00 0.00 100 1008.9
20220525111249 66 130 0.0 0.0 0.00 0.00 0.00 100 1008.9
20220525111149 66 130 0.0 0.0 0.00 0.00 0.00 100 1008.9
20220525111048 66 163 0.0 0.0 0.00 0.00 0.00 100 1009.0
20220525110948 66 164 2.6 0.0 0.00 0.00 0.00 100 1008.9
20220525110847 66 144 4.3 0.0 0.00 0.00 0.00 100 1008.9
20220525110747 66 142 4.3 0.0 0.00 0.00 0.00 100 1009.0
20220525110653 66 125 3.5 0.0 0.00 0.00 0.00 100 1008.9
20220525110553 66 128 2.6 0.0 0.00 0.00 0.00 100 1009.0
20220525110453 66 137 1.7 0.0 0.00 0.00 0.00 100 1009.1
20220525110354 66 137 0.0 0.0 0.00 0.00 0.00 100 1009.1
20220525110251 66 137 0.0 0.0 0.00 0.00 0.00 100 1009.2
20220525110149 66 137 1.7 0.0 0.00 0.00 0.00 100 1009.0
20220525110053 66 137 0.0 0.0 0.00 0.00 0.00 100 1009.1
20220525105952 66 137 0.0 0.0 0.00 0.00 0.00 100 1009.1
20220525105850 66 137 0.0 0.0 0.00 0.00 0.00 100 1009.1
20220525105750 66 136 0.0 0.0 0.00 0.00 0.00 100 1009.2
20220525105649 66 136 0.0 0.0 0.00 0.00 0.00 100 1009.2
20220525105548 66 136 1.7 0.0 0.00 0.00 0.00 100 1009.3
20220525105450 66 168 1.7 0.0 0.00 0.00 0.00 100 1009.2
20220525105352 66 130 0.0 0.0 0.00 0.00 0.00 100 1009.2
20220525105251 66 146 0.0 0.0 0.00 0.00 0.00 100 1009.2
20220525105152 66 143 2.6 0.0 0.00 0.00 0.00 100 1009.3
20220525105052 66 160 0.0 0.0 0.00 0.00 0.00 100 1009.4
20220525104950 66 124 0.9 0.0 0.00 0.00 0.00 100 1009.4
20220525104853 66 154 1.7 0.0 0.00 0.00 0.00 100 1009.2
20220525104756 66 119 4.3 0.0 0.00 0.00 0.00 100 1009.3
20220525104653 66 144 0.0 0.0 0.00 0.00 0.00 100 1009.2
20220525104553 66 143 6.1 0.0 0.00 0.00 0.00 100 1009.3
20220525104453 66 131 8.7 0.0 0.00 0.00 0.00 100 1009.5
20220525104354 66 141 0.0 0.0 0.00 0.00 0.00 100 1009.4
20220525104255 66 141 0.0 0.0 0.00 0.00 0.00 100 1009.3
20220525104153 66 142 0.0 0.0 0.00 0.00 0.00 100 1009.3
20220525104056 66 141 0.0 0.0 0.00 0.00 0.00 100 1009.3
20220525103957 66 141 2.6 0.0 0.00 0.00 0.00 100 1009.4
20220525103854 66 130 6.1 0.0 0.00 0.00 0.00 100 1009.2
20220525103753 66 110 4.3 0.0 0.00 0.00 0.00 100 1009.2
20220525103653 66 117 0.0 0.0 0.00 0.00 0.00 100 1009.2
20220525103553 66 117 0.0 0.0 0.00 0.00 0.00 100 1009.2
20220525103457 66 118 2.6 0.0 0.00 0.00 0.00 100 1009.1
20220525103357 66 121 3.5 0.0 0.00 0.00 0.00 100 1009.4
20220525103256 66 167 3.5 0.0 0.00 0.00 0.00 100 1009.4
20220525103154 66 145 2.6 0.0 0.00 0.00 0.00 100 1009.4
20220525103055 66 144 0.0 0.0 0.00 0.00 0.00 100 1009.3
20220525102957 66 144 0.0 0.0 0.00 0.00 0.00 100 1009.3
20220525102857 66 173 6.1 0.0 0.00 0.00 0.00 100 1009.3
20220525102801 66 149 4.3 0.0 0.00 0.00 0.00 100 1009.4
20220525102702 66 147 2.6 0.0 0.00 0.00 0.00 100 1009.3
20220525102601 66 148 2.6 0.0 0.00 0.00 0.00 100 1009.4
20220525102502 66 176 0.0 0.0 0.00 0.00 0.00 100 1009.2
20220525102403 66 176 0.0 0.0 0.00 0.00 0.00 100 1009.3
20220525102302 66 176 0.9 0.0 0.00 0.00 0.00 100 1009.3
20220525102147 66 146 5.2 0.0 0.00 0.00 0.00 100 1009.3
20220525102048 66 137 0.0 0.0 0.00 0.00 0.00 100 1009.3
20220525101949 66 137 0.0 0.0 0.00 0.00 0.00 100 1009.3
20220525101848 66 137 0.0 0.0 0.00 0.00 0.00 100 1009.4
20220525101808 66 137 0.0 0.0 0.00 0.00 0.00 100 1009.4
20220525101647 66 147 1.7 0.0 0.00 0.00 0.00 100 1009.4
20220525101552 66 127 3.5 0.0 0.00 0.00 0.00 100 1009.5
20220525101450 66 175 1.7 0.0 0.00 0.00 0.00 100 1009.5
20220525101352 66 142 2.6 0.0 0.00 0.00 0.00 100 1009.6
20220525101252 66 147 2.6 0.0 0.00 0.00 0.00 100 1009.7
20220525101153 66 152 2.6 0.0 0.00 0.00 0.00 100 1009.6
20220525101053 66 153 3.5 0.0 0.00 0.00 0.00 100 1009.6
20220525100955 66 160 3.5 0.0 0.00 0.00 0.00 100 1009.7
20220525100858 66 160 2.6 0.0 0.00 0.00 0.00 100 1009.8
20220525100758 66 161 0.0 0.0 0.00 0.00 0.00 100 1009.8
20220525100656 66 161 0.0 0.0 0.00 0.00 0.00 100 1009.7
20220525100557 66 156 2.6 0.0 0.00 0.00 0.00 100 1009.8
20220525100459 66 139 0.9 0.0 0.00 0.00 0.00 100 1009.8
20220525100358 66 170 2.6 0.0 0.00 0.00 0.00 100 1009.7
20220525100303 66 149 3.5 0.0 0.00 0.00 0.00 100 1009.7
20220525100205 66 170 0.0 0.0 0.00 0.00 0.00 100 1009.7
20220525100103 66 170 0.0 0.0 0.00 0.00 0.00 100 1009.7
20220525100003 66 170 0.0 0.0 0.00 0.00 0.00 100 1009.8
20220525095902 66 145 3.5 0.0 0.00 0.00 0.00 100 1009.8
20220525095804 66 128 5.2 0.0 0.00 0.00 0.00 100 1009.8
20220525095648 66 138 0.0 0.0 0.00 0.00 0.00 100 1009.7
20220525095609 66 138 2.6 0.0 0.00 0.00 0.00 100 1009.9
20220525095448 66 135 0.0 0.0 0.00 0.00 0.00 100 1009.8
20220525095347 66 108 0.0 0.0 0.00 0.00 0.00 100 1009.7
20220525095309 66 107 3.5 0.0 0.00 0.00 0.00 100 1009.9
20220525095208 66 126 4.3 0.0 0.00 0.00 0.00 100 1009.8
20220525095105 66 139 0.0 0.0 0.00 0.00 0.00 100 1009.8
20220525094948 66 139 0.0 0.0 0.00 0.00 0.00 100 1009.7
20220525094849 66 139 0.0 0.0 0.00 0.00 0.00 100 1009.7
20220525094749 66 139 0.0 0.0 0.00 0.00 0.00 100 1009.7
20220525094648 66 139 0.0 0.0 0.00 0.00 0.00 100 1009.7
20220525094549 66 139 1.7 0.0 0.00 0.00 0.00 100 1009.8
20220525094449 66 147 0.0 0.0 0.00 0.00 0.00 100 1009.9
20220525094354 66 147 0.9 0.0 0.00 0.00 0.00 100 1009.6
20220525094256 66 146 1.7 0.0 0.00 0.00 0.00 100 1009.7
20220525094154 66 137 0.0 0.0 0.00 0.00 0.00 100 1009.7
20220525094053 66 138 3.5 0.0 0.00 0.00 0.00 100 1009.6
20220525093952 66 145 0.0 0.0 0.00 0.00 0.00 100 1009.6
20220525093852 66 145 0.0 0.0 0.00 0.00 0.00 100 1009.5
20220525093752 66 145 0.0 0.0 0.00 0.00 0.00 100 1009.6
20220525093658 66 145 0.0 0.0 0.00 0.00 0.00 100 1009.5
20220525093557 66 145 0.0 0.0 0.00 0.00 0.00 100 1009.5
20220525093457 66 145 0.0 0.0 0.00 0.00 0.00 100 1009.5
20220525093359 66 145 0.0 0.0 0.00 0.00 0.00 100 1009.5
20220525093257 66 145 0.0 0.0 0.00 0.00 0.00 100 1009.6
20220525093155 66 145 0.0 0.0 0.00 0.00 0.00 100 1009.4
20220525093100 66 145 0.0 0.0 0.00 0.00 0.00 100 1009.5
20220525093002 66 137 2.6 0.0 0.00 0.00 0.00 100 1009.6
20220525092859 66 113 0.0 0.0 0.00 0.00 0.00 100 1009.6
20220525092800 66 113 1.7 0.0 0.00 0.00 0.00 100 1009.7
20220525092700 66 142 0.0 0.0 0.00 0.00 0.00 100 1009.6
20220525092601 66 142 0.0 0.0 0.00 0.00 0.00 100 1009.7
20220525092505 66 142 0.0 0.0 0.00 0.00 0.00 100 1009.6
20220525092347 66 142 0.0 0.0 0.00 0.00 0.00 100 1009.6
20220525092307 66 142 1.7 0.0 0.00 0.00 0.00 100 1009.7
20220525092207 66 142 0.0 0.0 0.00 0.00 0.00 100 1009.6
20220525092107 66 111 0.0 0.0 0.00 0.00 0.00 100 1009.5
20220525092006 66 111 0.0 0.0 0.00 0.00 0.00 100 1009.5
20220525091905 66 111 0.0 0.0 0.00 0.00 0.00 100 1009.6
20220525091750 66 132 3.5 0.0 0.00 0.00 0.00 100 1009.6
20220525091649 66 156 3.5 0.0 0.00 0.00 0.00 100 1009.6
20220525091548 66 156 0.0 0.0 0.00 0.00 0.00 100 1009.5
20220525091448 66 156 0.0 0.0 0.00 0.00 0.00 100 1009.6
20220525091349 66 163 1.7 0.0 0.00 0.00 0.00 100 1009.5
20220525091248 66 163 4.3 0.0 0.00 0.00 0.00 100 1009.4
20220525091152 66 157 3.5 0.0 0.00 0.00 0.00 100 1009.6
20220525091051 66 120 0.0 0.0 0.00 0.00 0.00 100 1009.5
20220525090951 66 144 0.0 0.0 0.00 0.00 0.00 100 1009.6
20220525090852 66 144 1.7 0.0 0.00 0.00 0.00 100 1009.5
20220525090752 66 119 2.6 0.0 0.00 0.00 0.00 100 1009.6
20220525090651 66 141 5.2 0.0 0.00 0.00 0.00 100 1009.6
20220525090552 66 152 7.0 0.0 0.00 0.00 0.00 100 1009.5
20220525090456 66 145 0.0 0.0 0.00 0.00 0.00 100 1009.5
20220525090355 66 116 0.9 0.0 0.00 0.00 0.00 100 1009.6
20220525090255 66 116 0.0 0.0 0.00 0.00 0.00 100 1009.6
20220525090157 66 115 0.0 0.0 0.00 0.00 0.00 100 1009.6
20220525090055 66 112 2.6 0.0 0.00 0.00 0.00 100 1009.6
20220525085955 66 151 0.0 0.0 0.00 0.00 0.00 100 1009.6
20220525085900 66 150 2.6 0.0 0.00 0.00 0.00 100 1009.6
20220525085758 66 148 1.7 0.0 0.00 0.00 0.00 100 1009.6
20220525085657 66 138 0.0 0.0 0.00 0.00 0.00 100 1009.6
20220525085558 66 139 1.7 0.0 0.00 0.00 0.00 100 1009.7
20220525085455 66 150 0.0 0.0 0.00 0.00 0.00 100 1009.6
20220525085353 66 169 2.6 0.0 0.00 0.00 0.00 100 1009.6
20220525085253 66 153 0.0 0.0 0.00 0.00 0.00 100 1009.6
20220525085155 66 153 0.0 0.0 0.00 0.00 0.00 100 1009.7
20220525085055 66 149 2.6 0.0 0.00 0.00 0.00 100 1009.7
20220525084955 66 120 3.5 0.0 0.00 0.00 0.00 100 1009.7
20220525084855 66 152 4.3 0.0 0.00 0.00 0.00 100 1009.6
20220525084751 66 169 0.0 0.0 0.00 0.00 0.00 100 1009.7
20220525084653 66 169 2.6 0.0 0.00 0.00 0.00 100 1009.8
20220525084557 66 169 2.6 0.0 0.00 0.00 0.00 100 1009.7
20220525084458 66 171 2.6 0.0 0.00 0.00 0.00 100 1009.7
20220525084400 66 158 2.6 0.0 0.00 0.00 0.00 100 1009.7
20220525084258 66 161 3.5 0.0 0.00 0.00 0.00 100 1009.7
20220525084156 66 156 0.0 0.0 0.00 0.00 0.00 100 1009.6
20220525084059 66 157 3.5 0.0 0.00 0.00 0.00 100 1009.7
20220525083957 66 147 0.0 0.0 0.00 0.00 0.00 100 1009.8
20220525083858 66 144 5.2 0.0 0.00 0.00 0.00 100 1009.9
20220525083759 66 169 2.6 0.0 0.00 0.00 0.00 100 1009.7
20220525083700 66 152 1.7 0.0 0.00 0.00 0.00 100 1009.7
20220525083600 66 172 0.0 0.0 0.00 0.00 0.00 100 1009.8
20220525083459 66 172 0.0 0.0 0.00 0.00 0.00 99 1009.7
20220525083400 66 172 2.6 0.0 0.00 0.00 0.00 100 1009.8
20220525083304 66 172 0.0 0.0 0.00 0.00 0.00 99 1009.7
20220525083204 66 173 2.6 0.0 0.00 0.00 0.00 99 1009.7
20220525083103 66 166 4.3 0.0 0.00 0.00 0.00 100 1009.7
20220525083002 66 167 0.9 0.0 0.00 0.00 0.00 99 1009.7
20220525082903 66 153 3.5 0.0 0.00 0.00 0.00 99 1009.6
20220525082802 66 160 0.0 0.0 0.00 0.00 0.00 99 1009.6
20220525082700 66 160 2.6 0.0 0.00 0.00 0.00 99 1009.7
20220525082605 66 159 2.6 0.0 0.00 0.00 0.00 99 1009.6
20220525082502 66 157 2.6 0.0 0.00 0.00 0.00 99 1009.6
20220525082401 66 132 4.3 0.0 0.00 0.00 0.00 99 1009.5
20220525082300 66 148 2.6 0.0 0.00 0.00 0.00 99 1009.4
20220525082200 66 163 2.6 0.0 0.00 0.00 0.00 99 1009.6
20220525082058 67 187 3.5 0.0 0.00 0.00 0.00 99 1009.4
20220525082003 66 187 0.0 0.0 0.00 0.00 0.00 99 1009.4
20220525081902 66 155 0.0 0.0 0.00 0.00 0.00 99 1009.4
20220525081803 66 155 0.9 0.0 0.00 0.00 0.00 99 1009.3
20220525081705 67 156 0.0 0.0 0.00 0.00 0.00 100 1009.5
20220525081604 67 156 0.0 0.0 0.00 0.00 0.00 100 1009.4
20220525081502 67 156 0.0 0.0 0.00 0.00 0.00 99 1009.5
20220525081401 67 156 2.6 0.0 0.00 0.00 0.00 100 1009.5
20220525081306 67 164 3.5 0.0 0.00 0.00 0.00 100 1009.5
20220525081205 67 142 3.5 0.0 0.00 0.00 0.00 100 1009.3
20220525081109 67 144 0.0 0.0 0.00 0.00 0.00 99 1009.5
20220525081006 67 112 4.3 0.0 0.00 0.00 0.00 100 1009.4
20220525080904 67 170 0.0 0.0 0.00 0.00 0.00 100 1009.4
20220525080804 67 170 0.0 0.0 0.00 0.00 0.00 99 1009.4
20220525080650 67 102 0.0 0.0 0.00 0.00 0.00 100 1009.4
20220525080606 67 148 0.0 0.0 0.00 0.00 0.00 100 1009.3
20220525080504 67 148 0.0 0.0 0.00 0.00 0.00 100 1009.5
20220525080404 67 126 2.6 0.0 0.00 0.00 0.00 100 1009.4
20220525080303 67 126 0.0 0.0 0.00 0.00 0.00 99 1009.3
20220525080201 67 126 1.7 0.0 0.00 0.00 0.00 99 1009.5
20220525080102 67 126 0.0 0.0 0.00 0.00 0.00 99 1009.3
20220525080005 67 126 0.0 0.0 0.00 0.00 0.00 100 1009.4
20220525075904 67 125 2.6 0.0 0.00 0.00 0.00 99 1009.3
20220525075804 67 141 0.0 0.0 0.00 0.00 0.00 99 1009.3
20220525075702 67 126 1.7 0.0 0.00 0.00 0.00 99 1009.4
20220525075603 67 125 0.0 0.0 0.00 0.00 0.00 99 1009.2
20220525075504 67 125 2.6 0.0 0.00 0.00 0.00 99 1009.3
20220525075407 67 134 3.5 0.0 0.00 0.00 0.00 99 1009.2
20220525075305 67 142 0.0 0.0 0.00 0.00 0.00 99 1009.2
20220525075204 67 142 0.0 0.0 0.00 0.00 0.00 99 1009.4
20220525075103 67 142 0.0 0.0 0.00 0.00 0.00 99 1009.4
20220525075001 67 148 0.0 0.0 0.00 0.00 0.00 99 1009.5
20220525074902 67 148 0.0 0.0 0.00 0.00 0.00 98 1009.4
20220525074800 67 148 0.0 0.0 0.00 0.00 0.00 98 1009.6
20220525074702 67 148 0.0 0.0 0.00 0.00 0.00 98 1009.6
20220525074603 67 148 0.0 0.0 0.00 0.00 0.00 98 1009.6
20220525074502 67 106 0.0 0.0 0.00 0.00 0.00 98 1009.5
20220525074401 67 106 0.0 0.0 0.00 0.00 0.00 98 1009.5
20220525074301 67 106 0.0 0.0 0.00 0.00 0.00 98 1009.5
20220525074200 67 106 0.0 0.0 0.00 0.00 0.00 98 1009.5
20220525074102 67 127 0.0 0.0 0.00 0.00 0.00 98 1009.4
20220525074001 67 172 0.0 0.0 0.00 0.00 0.00 98 1009.4
20220525073902 67 172 0.0 0.0 0.00 0.00 0.00 97 1009.4
20220525073801 67 172 0.0 0.0 0.00 0.00 0.00 97 1009.6
20220525073702 67 172 0.0 0.0 0.00 0.00 0.00 97 1009.7
20220525073602 67 172 0.0 0.0 0.00 0.00 0.00 97 1009.7
20220525073500 67 172 3.5 0.0 0.00 0.00 0.00 97 1009.8
20220525073404 67 171 3.5 0.0 0.00 0.00 0.00 97 1009.6
20220525073301 67 170 1.7 0.0 0.00 0.00 0.00 97 1009.5
20220525073201 67 170 4.3 0.0 0.00 0.00 0.00 97 1009.3
20220525073100 67 164 2.6 0.0 0.00 0.00 0.00 97 1009.2
20220525072959 67 154 3.5 0.0 0.00 0.00 0.00 97 1008.8
20220525072900 67 154 0.9 0.0 0.00 0.00 0.00 97 1008.9
20220525072804 67 113 6.1 0.0 0.00 0.00 0.00 97 1008.9
20220525072704 67 89 1.7 0.0 0.00 0.00 0.00 97 1008.9
20220525072602 67 132 4.3 0.0 0.00 0.00 0.00 97 1009.0
20220525072501 67 193 0.0 0.0 0.00 0.00 0.00 97 1009.0
20220525072401 67 193 0.0 0.0 0.00 0.00 0.00 97 1009.0
20220525072300 67 185 3.5 0.0 0.00 0.00 0.00 97 1009.0
20220525072202 67 162 0.0 0.0 0.00 0.00 0.00 96 1009.0
20220525072105 67 162 0.0 0.0 0.00 0.00 0.00 96 1009.0
20220525072005 67 162 0.0 0.0 0.00 0.00 0.00 97 1009.0
20220525071905 67 162 0.0 0.0 0.00 0.00 0.00 96 1009.2
20220525071804 67 162 0.9 0.0 0.00 0.00 0.00 96 1009.0
20220525071703 67 152 4.3 0.0 0.00 0.00 0.00 96 1009.0
20220525071605 67 192 0.9 0.0 0.00 0.00 0.00 96 1009.1
20220525071507 67 161 3.5 0.0 0.00 0.00 0.00 96 1009.1
20220525071404 67 120 0.9 0.0 0.00 0.00 0.00 96 1008.9
20220525071305 67 155 3.5 0.0 0.00 0.00 0.00 95 1008.9
20220525071156 67 140 0.0 0.0 0.00 0.00 0.00 96 1008.8
20220525071056 67 140 0.0 0.0 0.00 0.00 0.00 96 1008.8
20220525070956 67 89 6.1 0.0 0.00 0.00 0.00 95 1009.0
20220525070854 67 104 0.0 0.0 0.00 0.00 0.00 95 1009.1
20220525070756 67 104 0.0 0.0 0.00 0.00 0.00 95 1009.1
20220525070657 67 116 4.3 0.0 0.00 0.00 0.00 95 1009.1
20220525070553 67 123 0.0 0.0 0.00 0.00 0.00 95 1009.2
20220525070450 67 120 0.9 0.0 0.00 0.00 0.00 95 1009.2
20220525070348 67 120 0.0 0.0 0.00 0.00 0.00 95 1009.3
20220525070247 67 114 0.0 0.0 0.00 0.00 0.00 95 1009.3
20220525070151 67 118 0.0 0.0 0.00 0.00 0.00 95 1009.5
20220525070049 67 136 2.6 0.0 0.00 0.00 0.00 95 1009.5
20220525065948 67 135 0.9 0.0 0.00 0.00 0.00 95 1009.4
20220525065908 67 143 0.0 0.0 0.00 0.00 0.00 94 1009.5
20220525065806 67 143 0.0 0.0 0.00 0.00 0.00 95 1009.6
20220525065705 67 143 0.0 0.0 0.00 0.00 0.00 94 1009.6
20220525065606 67 143 0.0 0.0 0.00 0.00 0.00 95 1009.6
20220525065508 67 143 0.0 0.0 0.00 0.00 0.00 94 1009.7
20220525065404 67 143 0.9 0.0 0.00 0.00 0.00 94 1009.7
20220525065305 67 160 4.3 0.0 0.00 0.00 0.00 94 1009.8
20220525065203 67 154 0.0 0.0 0.00 0.00 0.00 94 1009.8
20220525065102 67 154 0.0 0.0 0.00 0.00 0.00 94 1009.9
20220525065000 67 128 3.5 0.0 0.00 0.00 0.00 94 1010.0
20220525064900 67 160 3.5 0.0 0.00 0.00 0.00 94 1009.9
20220525064801 67 102 0.0 0.0 0.00 0.00 0.00 94 1009.9
20220525064702 67 99 1.7 0.0 0.00 0.00 0.00 94 1010.0
20220525064559 67 99 0.0 0.0 0.00 0.00 0.00 94 1010.1
20220525064458 67 100 0.0 0.0 0.00 0.00 0.00 94 1010.1
20220525064357 67 136 0.0 0.0 0.00 0.00 0.00 94 1010.2
20220525064257 67 136 0.0 0.0 0.00 0.00 0.00 94 1010.3
20220525064200 67 136 0.0 0.0 0.00 0.00 0.00 94 1010.2
20220525064057 67 136 1.7 0.0 0.00 0.00 0.00 94 1010.2
20220525063957 67 140 2.6 0.0 0.00 0.00 0.00 94 1010.2
20220525063854 67 140 0.0 0.0 0.00 0.00 0.00 94 1010.3
20220525063755 67 140 3.5 0.0 0.00 0.00 0.00 94 1010.3
20220525063654 67 140 0.0 0.0 0.00 0.00 0.00 93 1010.3
20220525063553 67 140 0.0 0.0 0.00 0.00 0.00 93 1010.5
20220525063456 67 152 4.3 0.0 0.00 0.00 0.00 93 1010.4
20220525063355 67 156 0.9 0.0 0.00 0.00 0.00 93 1010.3
20220525063253 67 157 0.0 0.0 0.00 0.00 0.00 93 1010.5
20220525063150 67 145 3.5 0.0 0.00 0.00 0.00 93 1010.4
20220525063051 67 149 0.0 0.0 0.00 0.00 0.00 93 1010.5
20220525063008 67 149 0.0 0.0 0.00 0.00 0.00 93 1010.5
20220525062850 67 140 3.5 0.0 0.00 0.00 0.00 93 1010.5
20220525062751 67 166 2.6 0.0 0.00 0.00 0.00 93 1010.6
20220525062650 67 138 5.2 0.0 0.00 0.00 0.00 93 1010.6
20220525062608 67 137 0.0 0.0 0.00 0.00 0.00 93 1010.7
20220525062506 67 134 6.1 0.0 0.00 0.00 0.00 93 1010.7
20220525062406 67 111 4.3 0.0 0.00 0.00 0.00 93 1010.7
20220525062305 67 96 0.0 0.0 0.00 0.00 0.00 93 1010.7
20220525062147 67 133 4.3 0.0 0.00 0.00 0.00 93 1010.8
20220525062048 67 127 0.0 0.0 0.00 0.00 0.00 93 1010.8
20220525061947 67 127 0.0 0.0 0.00 0.00 0.00 93 1010.7
20220525061848 68 133 4.3 0.0 0.00 0.00 0.00 93 1010.9
20220525061808 68 151 4.3 0.0 0.00 0.00 0.00 93 1010.7
20220525061708 68 168 1.7 0.0 0.00 0.00 0.00 93 1010.8
20220525061550 68 111 0.0 0.0 0.00 0.00 0.00 94 1010.8
20220525061508 68 111 0.0 0.0 0.00 0.00 0.00 93 1010.8
20220525061406 68 142 0.0 0.0 0.00 0.00 0.00 93 1010.7
20220525061246 68 132 0.0 0.0 0.00 0.00 0.00 93 1010.7
20220525061206 68 132 0.9 0.0 0.00 0.00 0.00 94 1010.8
20220525061106 68 136 0.0 0.0 0.00 0.00 0.00 93 1010.8
20220525061004 68 136 0.0 0.0 0.00 0.00 0.00 93 1010.8
20220525060906 68 136 0.0 0.0 0.00 0.00 0.00 93 1010.8
20220525060806 68 132 0.0 0.0 0.00 0.00 0.00 93 1010.8
20220525060705 68 135 7.0 0.0 0.00 0.00 0.00 93 1010.9
20220525060604 68 140 0.0 0.0 0.00 0.00 0.00 93 1010.9
20220525060505 68 140 0.0 0.0 0.00 0.00 0.00 93 1010.9
20220525060404 68 142 0.0 0.0 0.00 0.00 0.00 93 1010.9
20220525060248 68 128 3.5 0.0 0.00 0.00 0.00 93 1010.8
20220525060208 68 123 0.0 0.0 0.00 0.00 0.00 93 1010.9
20220525060106 68 123 0.0 0.0 0.00 0.00 0.00 93 1011.0
20220525060007 68 119 4.3 0.0 0.00 0.00 0.00 93 1010.8
20220525055907 68 122 0.0 0.0 0.00 0.00 0.00 93 1010.9
20220525055807 68 150 0.9 0.0 0.00 0.00 0.00 92 1010.8
20220525055707 68 129 3.5 0.0 0.00 0.00 0.00 92 1010.8
20220525055549 68 132 2.6 0.0 0.00 0.00 0.00 92 1010.9
20220525055450 68 142 0.9 0.0 0.00 0.00 0.00 92 1010.9
20220525055350 68 139 0.0 0.0 0.00 0.00 0.00 92 1011.0
20220525055309 68 139 2.6 0.0 0.00 0.00 0.00 92 1011.0
20220525055206 68 143 3.5 0.0 0.00 0.00 0.00 92 1011.0
20220525055103 68 167 0.0 0.0 0.00 0.00 0.00 92 1011.1
20220525055003 68 126 0.0 0.0 0.00 0.00 0.00 92 1011.0
20220525054906 68 127 0.0 0.0 0.00 0.00 0.00 92 1011.0
20220525054804 68 127 0.9 0.0 0.00 0.00 0.00 91 1011.1
20220525054705 68 127 2.6 0.0 0.00 0.00 0.00 92 1011.1
20220525054606 68 128 0.0 0.0 0.00 0.00 0.00 91 1011.1
20220525054504 68 139 6.1 0.0 0.00 0.00 0.00 91 1011.1
20220525054404 68 133 0.9 0.0 0.00 0.00 0.00 91 1011.0
20220525054306 68 120 2.6 0.0 0.00 0.00 0.00 91 1011.0
20220525054205 68 118 0.0 0.0 0.00 0.00 0.00 91 1011.1
20220525054104 68 129 2.6 0.0 0.00 0.00 0.00 91 1011.0
20220525054002 68 153 0.9 0.0 0.00 0.00 0.00 91 1011.1
20220525053859 68 138 3.5 0.0 0.00 0.00 0.00 91 1011.1
20220525053757 68 131 0.0 0.0 0.00 0.00 0.00 91 1011.1
20220525053657 68 131 2.6 0.0 0.00 0.00 0.00 91 1011.0
20220525053601 68 157 0.9 0.0 0.00 0.00 0.00 91 1011.0
20220525053459 68 178 0.0 0.0 0.00 0.00 0.00 91 1011.0
20220525053400 68 142 0.0 0.0 0.00 0.00 0.00 91 1011.0
20220525053258 68 142 0.0 0.0 0.00 0.00 0.00 91 1010.9
20220525053157 68 142 0.0 0.0 0.00 0.00 0.00 91 1011.1
20220525053056 68 142 0.0 0.0 0.00 0.00 0.00 91 1011.1
20220525052958 68 141 0.0 0.0 0.00 0.00 0.00 91 1011.1
20220525052857 68 131 0.9 0.0 0.00 0.00 0.00 91 1011.1
20220525052758 68 132 0.9 0.0 0.00 0.00 0.00 91 1011.1
20220525052656 68 121 0.0 0.0 0.00 0.00 0.00 91 1011.1
20220525052552 68 121 0.0 0.0 0.00 0.00 0.00 91 1011.1
20220525052453 68 168 2.6 0.0 0.00 0.00 0.00 91 1011.2
20220525052353 68 145 4.3 0.0 0.00 0.00 0.00 91 1011.1
20220525052254 68 138 0.9 0.0 0.00 0.00 0.00 91 1011.2
20220525052154 68 173 0.0 0.0 0.00 0.00 0.00 91 1011.1
20220525052053 68 134 0.9 0.0 0.00 0.00 0.00 91 1011.2
20220525051952 68 134 0.9 0.0 0.00 0.00 0.00 91 1011.2
20220525051853 68 157 0.0 0.0 0.00 0.00 0.00 91 1011.2
20220525051754 68 118 4.3 0.0 0.00 0.00 0.00 91 1011.3
20220525051657 68 134 5.2 0.0 0.00 0.00 0.00 91 1011.2
20220525051558 69 127 3.5 0.0 0.00 0.00 0.00 90 1011.3
20220525051458 69 125 6.1 0.0 0.00 0.00 0.00 90 1011.2
20220525051357 69 127 4.3 0.0 0.00 0.00 0.00 91 1011.3
20220525051258 69 150 0.0 0.0 0.00 0.00 0.00 90 1011.2
20220525051157 69 142 3.5 0.0 0.00 0.00 0.00 90 1011.2
20220525051058 69 142 0.0 0.0 0.00 0.00 0.00 90 1011.2
20220525051001 69 141 2.6 0.0 0.00 0.00 0.00 90 1011.3
20220525050902 69 102 0.9 0.0 0.00 0.00 0.00 90 1011.3
20220525050759 69 149 6.1 0.0 0.00 0.00 0.00 90 1011.4
20220525050659 69 151 0.0 0.0 0.00 0.00 0.00 91 1011.4
20220525050557 69 149 0.9 0.0 0.00 0.00 0.00 90 1011.5
20220525050455 69 150 0.9 0.0 0.00 0.00 0.00 90 1011.4
20220525050358 69 131 4.3 0.0 0.00 0.00 0.00 90 1011.4
20220525050259 69 135 6.1 0.0 0.00 0.00 0.00 90 1011.4
20220525050159 69 125 1.7 0.0 0.00 0.00 0.00 90 1011.6
20220525050057 69 132 2.6 0.0 0.00 0.00 0.00 90 1011.5
20220525050029 69 120 7.8 0.0 0.00 0.00 0.00 90 1011.5
20220525045906 69 138 1.7 0.0 0.00 0.00 0.00 90 1011.5
20220525045806 69 114 3.5 0.0 0.00 0.00 0.00 90 1011.4
20220525045648 69 133 4.3 0.0 0.00 0.00 0.00 90 1011.5
20220525045608 69 161 1.7 0.0 0.00 0.00 0.00 90 1011.6
20220525045507 69 143 2.6 0.0 0.00 0.00 0.00 90 1011.4
20220525045405 69 146 7.8 0.0 0.00 0.00 0.00 90 1011.5
20220525045307 69 136 0.0 0.0 0.00 0.00 0.00 90 1011.5
20220525045206 69 161 0.9 0.0 0.00 0.00 0.00 90 1011.6
20220525045049 69 132 3.5 0.0 0.00 0.00 0.00 90 1011.5
20220525044948 69 88 2.6 0.0 0.00 0.00 0.00 90 1011.6
20220525044848 69 135 5.2 0.0 0.00 0.00 0.00 90 1011.7
20220525044807 69 154 3.5 0.0 0.00 0.00 0.00 90 1011.5
20220525044708 69 144 1.7 0.0 0.00 0.00 0.00 90 1011.6
20220525044607 69 144 2.6 0.0 0.00 0.00 0.00 90 1011.4
20220525044505 69 121 3.5 0.0 0.00 0.00 0.00 90 1011.6
20220525044348 69 182 0.9 0.0 0.00 0.00 0.00 90 1011.6
20220525044248 69 136 0.0 0.0 0.00 0.00 0.00 90 1011.6
20220525044209 69 140 4.3 0.0 0.00 0.00 0.00 90 1011.6
20220525044128 69 125 4.3 0.0 0.00 0.00 0.00 90 1011.6
20220525044005 69 146 0.9 0.0 0.00 0.00 0.00 90 1011.7
20220525043906 69 112 0.0 0.0 0.00 0.00 0.00 90 1011.7
20220525043806 69 160 3.5 0.0 0.00 0.00 0.00 89 1011.7
20220525043709 69 159 4.3 0.0 0.00 0.00 0.00 90 1011.8
20220525043606 69 142 7.0 0.0 0.00 0.00 0.00 90 1011.7
20220525043507 69 138 5.2 0.0 0.00 0.00 0.00 90 1011.6
20220525043404 69 147 0.0 0.0 0.00 0.00 0.00 90 1011.7
20220525043303 69 147 3.5 0.0 0.00 0.00 0.00 90 1011.7
20220525043203 69 142 5.2 0.0 0.00 0.00 0.00 89 1011.8
20220525043103 69 140 7.8 0.0 0.00 0.00 0.00 90 1011.7
20220525043006 69 184 4.3 0.0 0.00 0.00 0.00 90 1011.7
20220525042907 69 143 0.0 0.0 0.00 0.00 0.00 90 1011.7
20220525042805 69 143 2.6 0.0 0.00 0.00 0.00 90 1011.7
20220525042704 69 150 7.8 0.0 0.00 0.00 0.00 89 1011.6
20220525042603 69 55 0.0 0.0 0.00 0.00 0.00 90 1011.6
20220525042502 69 55 0.0 0.0 0.00 0.00 0.00 89 1011.6
20220525042405 69 125 0.9 0.0 0.00 0.00 0.00 89 1011.7
20220525042305 69 125 1.7 0.0 0.00 0.00 0.00 89 1011.7
20220525042204 69 133 4.3 0.0 0.00 0.00 0.00 89 1011.8
20220525042124 69 133 7.0 0.0 0.00 0.00 0.00 89 1011.6
20220525042001 69 136 0.0 0.0 0.00 0.00 0.00 89 1011.6
20220525041901 69 136 0.0 0.0 0.00 0.00 0.00 89 1011.7
20220525041800 69 129 6.1 0.0 0.00 0.00 0.00 89 1011.7
20220525041703 69 120 2.6 0.0 0.00 0.00 0.00 89 1011.7
20220525041604 69 114 3.5 0.0 0.00 0.00 0.00 89 1011.7
20220525041502 69 156 0.0 0.0 0.00 0.00 0.00 89 1011.7
20220525041400 69 133 3.5 0.0 0.00 0.00 0.00 89 1011.7
20220525041300 69 134 3.5 0.0 0.00 0.00 0.00 89 1011.8
20220525041158 69 139 5.2 0.0 0.00 0.00 0.00 89 1011.8
20220525041058 69 144 3.5 0.0 0.00 0.00 0.00 89 1011.9
20220525041002 69 115 0.9 0.0 0.00 0.00 0.00 89 1011.9
20220525040901 69 126 0.9 0.0 0.00 0.00 0.00 89 1012.0
20220525040800 69 152 0.0 0.0 0.00 0.00 0.00 89 1011.9
20220525040702 69 132 6.1 0.0 0.00 0.00 0.00 89 1011.9
20220525040558 69 122 9.6 0.0 0.00 0.00 0.00 89 1012.0
20220525040458 69 139 6.1 0.0 0.00 0.00 0.00 89 1012.0
20220525040402 69 150 0.9 0.0 0.00 0.00 0.00 89 1011.9
20220525040304 69 128 0.0 0.0 0.00 0.00 0.00 89 1012.0
20220525040202 69 150 4.3 0.0 0.00 0.00 0.00 89 1011.9
20220525040103 69 156 0.0 0.0 0.00 0.00 0.00 89 1012.0
20220525040002 69 128 3.5 0.0 0.00 0.00 0.00 89 1012.1
20220525035859 69 133 3.5 0.0 0.00 0.00 0.00 89 1012.0
20220525035756 69 143 4.3 0.0 0.00 0.00 0.00 89 1012.0
20220525035700 69 148 0.0 0.0 0.00 0.00 0.00 89 1012.0
20220525035600 69 148 0.0 0.0 0.00 0.00 0.00 89 1012.0
20220525035500 69 121 0.0 0.0 0.00 0.00 0.00 89 1012.1
20220525035359 69 142 6.1 0.0 0.00 0.00 0.00 89 1012.1
20220525035259 69 113 3.5 0.0 0.00 0.00 0.00 89 1012.0
20220525035200 69 126 1.7 0.0 0.00 0.00 0.00 89 1012.1
20220525035059 69 139 5.2 0.0 0.00 0.00 0.00 89 1012.1
20220525035000 69 124 0.0 0.0 0.00 0.00 0.00 89 1012.2
20220525034900 69 124 0.0 0.0 0.00 0.00 0.00 89 1012.3
20220525034758 69 130 4.3 0.0 0.00 0.00 0.00 89 1012.2
20220525034656 69 172 0.0 0.0 0.00 0.00 0.00 89 1012.3
20220525034555 69 128 0.0 0.0 0.00 0.00 0.00 89 1012.3
20220525034456 69 96 0.0 0.0 0.00 0.00 0.00 89 1012.2
20220525034357 69 134 0.0 0.0 0.00 0.00 0.00 89 1012.3
20220525034258 69 93 0.0 0.0 0.00 0.00 0.00 89 1012.3
20220525034157 69 143 1.7 0.0 0.00 0.00 0.00 89 1012.2
20220525034056 69 111 0.9 0.0 0.00 0.00 0.00 89 1012.2
20220525033958 69 110 3.5 0.0 0.00 0.00 0.00 89 1012.2
20220525033855 69 33 0.0 0.0 0.00 0.00 0.00 89 1012.3
20220525033757 69 34 0.0 0.0 0.00 0.00 0.00 89 1012.2
20220525033656 69 147 5.2 0.0 0.00 0.00 0.00 89 1012.2
20220525033555 69 120 3.5 0.0 0.00 0.00 0.00 89 1012.2
20220525033452 69 102 0.9 0.0 0.00 0.00 0.00 89 1012.2
20220525033351 69 89 0.0 0.0 0.00 0.00 0.00 89 1012.2
20220525033250 69 90 0.0 0.0 0.00 0.00 0.00 89 1012.2
20220525033150 69 153 3.5 0.0 0.00 0.00 0.00 89 1012.2
20220525033053 69 178 3.5 0.0 0.00 0.00 0.00 89 1012.2
20220525032951 69 109 0.0 0.0 0.00 0.00 0.00 89 1012.3
20220525032850 69 143 0.9 0.0 0.00 0.00 0.00 89 1012.2
20220525032749 69 83 3.5 0.0 0.00 0.00 0.00 89 1012.2
20220525032708 69 133 1.7 0.0 0.00 0.00 0.00 89 1012.2
20220525032606 69 117 0.0 0.0 0.00 0.00 0.00 89 1012.3
20220525032505 69 117 0.9 0.0 0.00 0.00 0.00 89 1012.3
20220525032407 69 117 2.6 0.0 0.00 0.00 0.00 89 1012.2
20220525032306 69 140 5.2 0.0 0.00 0.00 0.00 89 1012.1
20220525032206 69 145 5.2 0.0 0.00 0.00 0.00 89 1012.3
20220525032106 69 171 1.7 0.0 0.00 0.00 0.00 89 1012.3
20220525032005 69 127 4.3 0.0 0.00 0.00 0.00 89 1012.3
20220525031906 69 117 3.5 0.0 0.00 0.00 0.00 89 1012.3
20220525031750 69 122 1.7 0.0 0.00 0.00 0.00 89 1012.3
20220525031647 69 146 3.5 0.0 0.00 0.00 0.00 89 1012.2
20220525031608 69 122 7.8 0.0 0.00 0.00 0.00 89 1012.2
20220525031506 69 158 4.3 0.0 0.00 0.00 0.00 89 1012.3
20220525031406 69 165 2.6 0.0 0.00 0.00 0.00 89 1012.4
20220525031308 69 148 4.3 0.0 0.00 0.00 0.00 89 1012.3
20220525031149 69 126 0.0 0.0 0.00 0.00 0.00 89 1012.3
20220525031049 69 99 4.3 0.0 0.00 0.00 0.00 89 1012.4
20220525030948 69 138 0.0 0.0 0.00 0.00 0.00 89 1012.5
20220525030848 69 115 2.6 0.0 0.00 0.00 0.00 89 1012.5
20220525030747 69 115 0.0 0.0 0.00 0.00 0.00 89 1012.6
20220525030648 69 118 0.0 0.0 0.00 0.00 0.00 89 1012.5
20220525030549 69 130 0.9 0.0 0.00 0.00 0.00 89 1012.5
20220525030452 69 127 0.0 0.0 0.00 0.00 0.00 89 1012.5
20220525030413 69 111 3.5 0.0 0.00 0.00 0.00 89 1012.5
20220525030308 69 133 8.7 0.0 0.00 0.00 0.00 89 1012.2
20220525030207 69 158 3.5 0.0 0.00 0.00 0.00 89 1012.4
20220525030047 69 153 3.5 0.0 0.00 0.00 0.00 89 1012.5
20220525025948 69 165 1.7 0.0 0.00 0.00 0.00 88 1012.5
20220525025851 70 136 5.2 0.0 0.00 0.00 0.00 88 1012.4
20220525025750 70 113 0.9 0.0 0.00 0.00 0.00 89 1012.5
20220525025650 70 76 2.6 0.0 0.00 0.00 0.00 89 1012.5
20220525025548 70 175 3.5 0.0 0.00 0.00 0.00 88 1012.5
20220525025508 70 165 3.5 0.0 0.00 0.00 0.00 89 1012.4
20220525025406 70 147 7.0 0.0 0.00 0.00 0.00 88 1012.4
20220525025303 70 184 0.0 0.0 0.00 0.00 0.00 88 1012.4
20220525025206 70 165 3.5 0.0 0.00 0.00 0.00 88 1012.4
20220525025105 70 159 1.7 0.0 0.00 0.00 0.00 88 1012.5
20220525025004 70 155 6.1 0.0 0.00 0.00 0.00 88 1012.4
20220525024905 70 153 0.0 0.0 0.00 0.00 0.00 88 1012.4
20220525024806 70 157 0.9 0.0 0.00 0.00 0.00 88 1012.5
20220525024704 70 119 0.9 0.0 0.00 0.00 0.00 88 1012.4
20220525024547 70 134 2.6 0.0 0.00 0.00 0.00 88 1012.4
20220525024448 70 164 1.7 0.0 0.00 0.00 0.00 88 1012.4
20220525024349 70 180 0.9 0.0 0.00 0.00 0.00 88 1012.5
20220525024247 70 167 7.0 0.0 0.00 0.00 0.00 88 1012.4
20220525024208 70 145 6.1 0.0 0.00 0.00 0.00 88 1012.4
20220525024107 70 167 1.7 0.0 0.00 0.00 0.00 88 1012.4
20220525024005 70 146 2.6 0.0 0.00 0.00 0.00 88 1012.4
20220525023851 70 140 8.7 0.0 0.00 0.00 0.00 88 1012.5
20220525023750 70 162 1.7 0.0 0.00 0.00 0.00 88 1012.3
20220525023649 70 149 2.6 0.0 0.00 0.00 0.00 88 1012.4
20220525023609 70 158 4.3 0.0 0.00 0.00 0.00 88 1012.3
20220525023507 70 178 4.3 0.0 0.00 0.00 0.00 88 1012.3
20220525023410 70 141 0.0 0.0 0.00 0.00 0.00 88 1012.3
20220525023251 70 167 1.7 0.0 0.00 0.00 0.00 88 1012.4
20220525023149 70 148 3.5 0.0 0.00 0.00 0.00 88 1012.5
20220525023048 70 149 3.5 0.0 0.00 0.00 0.00 88 1012.3
20220525023008 70 139 0.0 0.0 0.00 0.00 0.00 88 1012.4
20220525022847 70 166 2.6 0.0 0.00 0.00 0.00 88 1012.4
20220525022810 70 151 1.7 0.0 0.00 0.00 0.00 88 1012.3
20220525022706 70 180 2.6 0.0 0.00 0.00 0.00 88 1012.3
20220525022549 70 113 0.9 0.0 0.00 0.00 0.00 88 1012.3
20220525022448 70 113 0.0 0.0 0.00 0.00 0.00 87 1012.3
20220525022409 70 113 0.9 0.0 0.00 0.00 0.00 88 1012.4
20220525022308 70 141 5.2 0.0 0.00 0.00 0.00 88 1012.1
20220525022206 70 123 2.6 0.0 0.00 0.00 0.00 87 1012.3
20220525022104 70 152 2.6 0.0 0.00 0.00 0.00 88 1012.4
20220525021947 70 152 0.0 0.0 0.00 0.00 0.00 88 1012.2
20220525021910 70 152 3.5 0.0 0.00 0.00 0.00 87 1012.3
20220525021805 70 159 2.6 0.0 0.00 0.00 0.00 87 1012.2
20220525021704 70 144 0.0 0.0 0.00 0.00 0.00 87 1012.3
20220525021604 70 144 0.0 0.0 0.00 0.00 0.00 87 1012.2
20220525021505 70 143 2.6 0.0 0.00 0.00 0.00 87 1012.1
20220525021405 70 124 4.3 0.0 0.00 0.00 0.00 87 1012.1
20220525021310 70 204 0.0 0.0 0.00 0.00 0.00 88 1012.2
20220525021207 70 199 2.6 0.0 0.00 0.00 0.00 87 1012.2
20220525021047 70 136 7.8 0.0 0.00 0.00 0.00 87 1012.1
20220525021007 70 162 5.2 0.0 0.00 0.00 0.00 87 1012.2
20220525020906 70 157 6.1 0.0 0.00 0.00 0.00 88 1012.3
20220525020804 70 155 3.5 0.0 0.00 0.00 0.00 88 1012.3
20220525020701 70 117 3.5 0.0 0.00 0.00 0.00 87 1012.1
20220525020605 70 173 3.5 0.0 0.00 0.00 0.00 88 1012.2
20220525020505 70 147 4.3 0.0 0.00 0.00 0.00 88 1012.2
20220525020402 70 140 7.0 0.0 0.00 0.00 0.00 88 1012.1
20220525020303 70 138 1.7 0.0 0.00 0.00 0.00 88 1012.1
20220525020201 70 142 1.7 0.0 0.00 0.00 0.00 88 1012.0
20220525020101 70 150 5.2 0.0 0.00 0.00 0.00 88 1012.1
20220525020006 70 138 6.1 0.0 0.00 0.00 0.00 88 1012.1
20220525015903 70 124 0.0 0.0 0.00 0.00 0.00 88 1012.1
20220525015803 70 124 1.7 0.0 0.00 0.00 0.00 88 1012.2
20220525015703 70 136 5.2 0.0 0.00 0.00 0.00 87 1012.0
20220525015600 70 129 0.9 0.0 0.00 0.00 0.00 88 1012.2
20220525015459 70 125 2.6 0.0 0.00 0.00 0.00 87 1012.2
20220525015400 70 133 0.9 0.0 0.00 0.00 0.00 87 1012.1
20220525015306 70 133 0.0 0.0 0.00 0.00 0.00 87 1012.1
20220525015203 70 133 0.0 0.0 0.00 0.00 0.00 87 1012.2
20220525015104 70 133 0.0 0.0 0.00 0.00 0.00 87 1012.1
20220525015002 70 133 5.2 0.0 0.00 0.00 0.00 87 1012.2
20220525014902 70 133 0.0 0.0 0.00 0.00 0.00 87 1012.3
20220525014802 70 128 0.0 0.0 0.00 0.00 0.00 87 1012.2
20220525014704 70 128 0.0 0.0 0.00 0.00 0.00 87 1012.2
20220525014603 70 128 0.0 0.0 0.00 0.00 0.00 86 1012.1
20220525014502 70 127 6.1 0.0 0.00 0.00 0.00 86 1012.2
20220525014400 70 118 2.6 0.0 0.00 0.00 0.00 87 1012.3
20220525014259 70 110 0.0 0.0 0.00 0.00 0.00 86 1012.2
20220525014158 70 155 0.0 0.0 0.00 0.00 0.00 86 1012.2
20220525014057 70 139 1.7 0.0 0.00 0.00 0.00 86 1012.2
20220525013958 70 138 0.0 0.0 0.00 0.00 0.00 86 1012.2
20220525013859 70 141 0.0 0.0 0.00 0.00 0.00 86 1012.1
20220525013759 70 141 0.0 0.0 0.00 0.00 0.00 86 1012.2
20220525013658 70 141 0.0 0.0 0.00 0.00 0.00 86 1012.2
20220525013558 70 141 0.0 0.0 0.00 0.00 0.00 86 1012.3
20220525013454 70 141 0.0 0.0 0.00 0.00 0.00 86 1012.3
20220525013358 70 146 0.0 0.0 0.00 0.00 0.00 86 1012.1
20220525013259 70 146 0.0 0.0 0.00 0.00 0.00 86 1012.2
20220525013159 70 146 0.0 0.0 0.00 0.00 0.00 86 1012.3
20220525013057 71 146 0.0 0.0 0.00 0.00 0.00 86 1012.2
20220525012958 71 148 1.7 0.0 0.00 0.00 0.00 86 1012.3
20220525012857 71 148 0.0 0.0 0.00 0.00 0.00 86 1012.3
20220525012757 71 159 0.0 0.0 0.00 0.00 0.00 85 1012.3
20220525012702 71 159 0.9 0.0 0.00 0.00 0.00 85 1012.2
20220525012601 71 159 0.0 0.0 0.00 0.00 0.00 85 1012.1
20220525012459 71 159 0.0 0.0 0.00 0.00 0.00 85 1012.2
20220525012356 71 159 2.6 0.0 0.00 0.00 0.00 85 1012.3
20220525012258 71 162 0.0 0.0 0.00 0.00 0.00 85 1012.1
20220525012157 71 162 0.0 0.0 0.00 0.00 0.00 85 1012.2
20220525012059 71 164 0.0 0.0 0.00 0.00 0.00 85 1012.1
20220525012000 71 146 3.5 0.0 0.00 0.00 0.00 85 1012.3
20220525011902 71 146 0.0 0.0 0.00 0.00 0.00 85 1012.1
20220525011803 71 146 0.0 0.0 0.00 0.00 0.00 85 1012.1
20220525011704 71 146 0.0 0.0 0.00 0.00 0.00 85 1012.3
20220525011603 71 145 0.0 0.0 0.00 0.00 0.00 85 1012.3
20220525011502 71 145 2.6 0.0 0.00 0.00 0.00 85 1012.0
20220525011406 71 146 2.6 0.0 0.00 0.00 0.00 85 1012.1
20220525011303 71 122 4.3 0.0 0.00 0.00 0.00 85 1012.1
20220525011202 71 160 0.9 0.0 0.00 0.00 0.00 85 1012.1
20220525011102 71 160 1.7 0.0 0.00 0.00 0.00 85 1011.9
20220525011002 71 111 0.0 0.0 0.00 0.00 0.00 84 1012.0
20220525010901 71 127 0.0 0.0 0.00 0.00 0.00 84 1011.9
20220525010805 71 127 0.0 0.0 0.00 0.00 0.00 84 1012.1
20220525010703 71 131 0.0 0.0 0.00 0.00 0.00 84 1011.9
20220525010601 71 141 2.6 0.0 0.00 0.00 0.00 84 1012.0
20220525010502 71 142 0.0 0.0 0.00 0.00 0.00 84 1011.9
20220525010400 71 142 0.9 0.0 0.00 0.00 0.00 84 1011.9
20220525010256 71 142 0.0 0.0 0.00 0.00 0.00 84 1011.9
20220525010157 71 142 0.9 0.0 0.00 0.00 0.00 84 1011.9
20220525010100 71 132 2.6 0.0 0.00 0.00 0.00 84 1011.9
20220525010000 71 134 0.0 0.0 0.00 0.00 0.00 84 1011.9
20220525005901 71 134 0.9 0.0 0.00 0.00 0.00 84 1011.9
20220525005800 71 132 0.0 0.0 0.00 0.00 0.00 84 1012.0
20220525005659 71 132 0.0 0.0 0.00 0.00 0.00 84 1012.0
20220525005559 71 132 0.0 0.0 0.00 0.00 0.00 84 1012.1
20220525005503 71 132 3.5 0.0 0.00 0.00 0.00 84 1012.2
20220525005403 71 133 1.7 0.0 0.00 0.00 0.00 84 1012.0
20220525005303 71 141 5.2 0.0 0.00 0.00 0.00 84 1012.0
20220525005201 71 134 0.0 0.0 0.00 0.00 0.00 84 1012.2
20220525005100 71 135 0.0 0.0 0.00 0.00 0.00 84 1012.0
20220525005002 71 135 0.0 0.0 0.00 0.00 0.00 84 1012.2
20220525004902 71 136 0.0 0.0 0.00 0.00 0.00 84 1012.2
20220525004805 71 136 2.6 0.0 0.00 0.00 0.00 84 1012.1
20220525004707 71 129 0.0 0.0 0.00 0.00 0.00 84 1012.2
20220525004605 71 129 0.0 0.0 0.00 0.00 0.00 84 1012.2
20220525004503 71 132 0.0 0.0 0.00 0.00 0.00 84 1012.1
20220525004403 71 133 1.7 0.0 0.00 0.00 0.00 83 1012.2
20220525004302 71 152 1.7 0.0 0.00 0.00 0.00 84 1012.1
20220525004204 71 157 5.2 0.0 0.00 0.00 0.00 83 1012.1
20220525004105 71 131 2.6 0.0 0.00 0.00 0.00 84 1012.1
20220525004005 71 131 2.6 0.0 0.00 0.00 0.00 84 1012.0
20220525003904 71 131 0.0 0.0 0.00 0.00 0.00 83 1012.1
20220525003805 71 131 0.0 0.0 0.00 0.00 0.00 84 1012.0
20220525003705 71 131 3.5 0.0 0.00 0.00 0.00 83 1012.0
20220525003602 71 138 6.1 0.0 0.00 0.00 0.00 84 1011.9
20220525003505 71 124 0.0 0.0 0.00 0.00 0.00 83 1011.9
20220525003404 71 124 0.0 0.0 0.00 0.00 0.00 83 1012.1
20220525003301 71 125 0.0 0.0 0.00 0.00 0.00 83 1012.1
20220525003202 71 124 0.0 0.0 0.00 0.00 0.00 83 1012.0
20220525003100 71 124 0.0 0.0 0.00 0.00 0.00 83 1012.1
20220525002958 71 120 2.6 0.0 0.00 0.00 0.00 83 1011.9
20220525002903 71 152 0.0 0.0 0.00 0.00 0.00 83 1011.9
20220525002802 71 152 0.0 0.0 0.00 0.00 0.00 83 1012.0
20220525002701 71 113 1.7 0.0 0.00 0.00 0.00 83 1012.0
20220525002601 71 111 0.9 0.0 0.00 0.00 0.00 83 1012.1
20220525002457 71 68 0.9 0.0 0.00 0.00 0.00 83 1012.0
20220525002358 71 122 0.0 0.0 0.00 0.00 0.00 83 1012.0
20220525002256 71 122 0.0 0.0 0.00 0.00 0.00 83 1012.2
20220525002202 71 121 5.2 0.0 0.00 0.00 0.00 83 1012.1
20220525002100 71 120 0.0 0.0 0.00 0.00 0.00 82 1012.1
20220525002000 71 152 0.0 0.0 0.00 0.00 0.00 82 1012.3
20220525001857 71 152 1.7 0.0 0.00 0.00 0.00 82 1012.3
20220525001756 71 144 2.6 0.0 0.00 0.00 0.00 82 1012.1
20220525001656 71 68 1.7 0.0 0.00 0.00 0.00 82 1012.2
20220525001600 71 71 0.9 0.0 0.00 0.00 0.00 83 1012.1
20220525001458 71 150 7.8 0.0 0.00 0.00 0.00 83 1012.2
20220525001358 71 141 0.0 0.0 0.00 0.00 0.00 83 1012.1
20220525001257 71 141 0.0 0.0 0.00 0.00 0.00 82 1012.2
20220525001156 71 126 0.9 0.0 0.00 0.00 0.00 82 1012.2
20220525001056 72 100 3.5 0.0 0.00 0.00 0.00 83 1012.2
20220525000955 72 139 3.5 0.0 0.00 0.00 0.00 83 1012.2
20220525000857 72 139 0.0 0.0 0.00 0.00 0.00 82 1012.3
20220525000756 72 140 6.1 0.0 0.00 0.00 0.00 82 1012.2
20220525000657 72 143 0.0 0.0 0.00 0.00 0.00 82 1012.2
20220525000556 72 143 0.0 0.0 0.00 0.00 0.00 82 1012.3
20220525000455 72 133 4.3 0.0 0.00 0.00 0.00 82 1012.3
20220525000355 72 126 2.6 0.0 0.00 0.00 0.00 82 1012.2
20220525000257 72 138 3.5 0.0 0.00 0.00 0.00 82 1012.2
20220525000157 72 135 0.0 0.0 0.00 0.00 0.00 82 1012.2
20220525000057 72 152 2.6 0.0 0.00 0.00 0.00 82 1012.3
20220524235953 72 106 2.6 0.0 0.00 0.00 0.00 82 1012.3
20220524235850 72 98 0.9 0.0 0.00 0.00 0.00 82 1012.3
20220524235750 72 133 7.0 0.0 0.00 0.00 0.00 82 1012.3
20220524235709 72 131 3.5 0.0 0.00 0.00 0.00 82 1012.3
20220524235549 72 139 6.1 0.0 0.00 0.00 0.00 82 1012.2
20220524235448 72 85 0.0 0.0 0.00 0.00 0.00 82 1012.3
20220524235407 72 83 0.9 0.0 0.00 0.00 0.00 82 1012.2
20220524235307 72 103 4.3 0.0 0.00 0.00 0.00 82 1012.2
20220524235207 72 116 3.5 0.0 0.00 0.00 0.00 82 1012.1
20220524235106 72 131 0.0 0.0 0.00 0.00 0.00 82 1012.2
20220524234949 72 126 0.0 0.0 0.00 0.00 0.00 82 1012.4
20220524234908 72 70 0.9 0.0 0.00 0.00 0.00 82 1012.2
20220524234806 72 68 0.9 0.0 0.00 0.00 0.00 82 1012.4
20220524234707 72 142 0.0 0.0 0.00 0.00 0.00 82 1012.4
20220524234606 72 138 3.5 0.0 0.00 0.00 0.00 82 1012.3
20220524234505 72 140 3.5 0.0 0.00 0.00 0.00 82 1012.4
20220524234403 72 151 7.0 0.0 0.00 0.00 0.00 82 1012.4
20220524234247 72 138 8.7 0.0 0.00 0.00 0.00 82 1012.3
20220524234207 72 141 6.1 0.0 0.00 0.00 0.00 82 1012.3
20220524234106 72 116 7.8 0.0 0.00 0.00 0.00 82 1012.4
20220524234005 72 87 0.0 0.0 0.00 0.00 0.00 82 1012.5
20220524233905 72 168 0.0 0.0 0.00 0.00 0.00 82 1012.3
20220524233804 72 156 6.1 0.0 0.00 0.00 0.00 82 1012.4
20220524233702 72 138 7.8 0.0 0.00 0.00 0.00 83 1012.5
20220524233607 72 126 6.1 0.0 0.00 0.00 0.00 83 1012.4
20220524233505 72 143 0.0 0.0 0.00 0.00 0.00 82 1012.4
20220524233403 72 121 3.5 0.0 0.00 0.00 0.00 82 1012.4
20220524233301 72 113 1.7 0.0 0.00 0.00 0.00 83 1012.5
20220524233201 72 137 0.0 0.0 0.00 0.00 0.00 82 1012.4
20220524233100 72 138 4.3 0.0 0.00 0.00 0.00 82 1012.5
20220524233003 72 153 0.0 0.0 0.00 0.00 0.00 83 1012.5
20220524232905 72 111 1.7 0.0 0.00 0.00 0.00 82 1012.7
20220524232805 72 110 0.9 0.0 0.00 0.00 0.00 82 1012.5
20220524232703 72 145 1.7 0.0 0.00 0.00 0.00 82 1012.5
20220524232559 71 146 0.0 0.0 0.00 0.00 0.00 82 1012.6
20220524232501 72 145 4.3 0.0 0.00 0.00 0.00 82 1012.5
20220524232400 72 152 4.3 0.0 0.00 0.00 0.00 82 1012.7
20220524232302 71 124 0.9 0.0 0.00 0.00 0.00 83 1012.5
20220524232200 71 135 1.7 0.0 0.00 0.00 0.00 82 1012.6
20220524232100 71 118 4.3 0.0 0.00 0.00 0.00 82 1012.5
20220524231959 71 118 1.7 0.0 0.00 0.00 0.00 83 1012.6
20220524231859 71 140 0.0 0.0 0.00 0.00 0.00 82 1012.7
20220524231755 71 139 6.1 0.0 0.00 0.00 0.00 82 1012.5
20220524231656 71 125 2.6 0.0 0.00 0.00 0.00 82 1012.8
20220524231556 71 108 0.0 0.0 0.00 0.00 0.00 82 1012.6
20220524231456 71 110 0.9 0.0 0.00 0.00 0.00 82 1012.6
20220524231354 71 86 5.2 0.0 0.00 0.00 0.00 82 1012.7
20220524231252 71 143 0.0 0.0 0.00 0.00 0.00 82 1012.6
20220524231150 71 161 2.6 0.0 0.00 0.00 0.00 82 1012.6
20220524231050 71 115 0.0 0.0 0.00 0.00 0.00 82 1012.6
20220524230955 71 117 0.0 0.0 0.00 0.00 0.00 82 1012.6
20220524230853 71 129 6.1 0.0 0.00 0.00 0.00 82 1012.6
20220524230752 71 166 0.0 0.0 0.00 0.00 0.00 82 1012.8
20220524230652 71 61 0.0 0.0 0.00 0.00 0.00 82 1012.7
20220524230550 71 138 0.0 0.0 0.00 0.00 0.00 82 1012.7
20220524230448 71 142 0.0 0.0 0.00 0.00 0.00 82 1012.6
20220524230353 71 142 0.0 0.0 0.00 0.00 0.00 82 1012.7
20220524230250 71 142 0.0 0.0 0.00 0.00 0.00 82 1012.6
20220524230148 71 142 0.0 0.0 0.00 0.00 0.00 82 1012.6
20220524230049 71 142 0.0 0.0 0.00 0.00 0.00 82 1012.7
20220524225950 71 144 4.3 0.0 0.00 0.00 0.00 82 1012.6
20220524225850 71 118 1.7 0.0 0.00 0.00 0.00 82 1012.7
20220524225750 71 150 0.0 0.0 0.00 0.00 0.00 82 1012.6
20220524225654 71 149 0.0 0.0 0.00 0.00 0.00 82 1012.8
20220524225553 71 150 0.9 0.0 0.00 0.00 0.00 81 1012.7
20220524225454 71 161 0.0 0.0 0.00 0.00 0.00 82 1012.8
20220524225355 71 161 2.6 0.0 0.00 0.00 0.00 81 1012.7
20220524225254 71 103 0.0 0.0 0.00 0.00 0.00 81 1012.8
20220524225155 71 81 0.0 0.0 0.00 0.00 0.00 81 1012.8
20220524225057 71 115 1.7 0.0 0.00 0.00 0.00 82 1012.8
20220524224955 71 139 2.6 0.0 0.00 0.00 0.00 82 1012.7
20220524224856 71 148 0.0 0.0 0.00 0.00 0.00 82 1012.8
20220524224753 71 150 0.9 0.0 0.00 0.00 0.00 82 1013.0
20220524224651 71 146 6.1 0.0 0.00 0.00 0.00 82 1012.8
20220524224554 71 154 0.0 0.0 0.00 0.00 0.00 82 1013.0
20220524224453 71 154 0.0 0.0 0.00 0.00 0.00 82 1012.8
20220524224356 71 179 2.6 0.0 0.00 0.00 0.00 82 1012.9
20220524224255 71 213 0.0 0.0 0.00 0.00 0.00 82 1013.0
20220524224155 71 214 0.0 0.0 0.00 0.00 0.00 81 1012.9
20220524224054 71 137 0.0 0.0 0.00 0.00 0.00 81 1012.9
20220524223955 71 137 0.0 0.0 0.00 0.00 0.00 81 1012.9
20220524223852 71 137 0.9 0.0 0.00 0.00 0.00 81 1012.9
20220524223758 71 136 7.0 0.0 0.00 0.00 0.00 81 1012.8
20220524223657 71 54 2.6 0.0 0.00 0.00 0.00 81 1013.0
20220524223556 71 132 7.0 0.0 0.00 0.00 0.00 81 1012.9
20220524223455 71 55 0.0 0.0 0.00 0.00 0.00 81 1012.9
20220524223357 71 131 5.2 0.0 0.00 0.00 0.00 81 1012.9
20220524223253 71 112 0.0 0.0 0.00 0.00 0.00 81 1013.0
20220524223151 71 113 2.6 0.0 0.00 0.00 0.00 81 1012.8
20220524223056 71 109 0.0 0.0 0.00 0.00 0.00 81 1012.8
20220524222952 72 131 0.9 0.0 0.00 0.00 0.00 81 1012.9
20220524222851 72 136 7.0 0.0 0.00 0.00 0.00 81 1013.1
20220524222749 72 72 0.0 0.0 0.00 0.00 0.00 81 1012.9
20220524222649 72 90 2.6 0.0 0.00 0.00 0.00 81 1012.9
20220524222607 72 109 2.6 0.0 0.00 0.00 0.00 81 1012.8
20220524222451 72 146 0.0 0.0 0.00 0.00 0.00 81 1012.9
20220524222348 72 146 0.0 0.0 0.00 0.00 0.00 81 1013.1
20220524222310 72 146 0.0 0.0 0.00 0.00 0.00 81 1013.0
20220524222206 71 146 0.0 0.0 0.00 0.00 0.00 81 1012.9
20220524222103 72 146 0.0 0.0 0.00 0.00 0.00 81 1012.9
20220524222002 72 93 0.0 0.0 0.00 0.00 0.00 81 1012.9
20220524221903 71 94 0.9 0.0 0.00 0.00 0.00 81 1013.0
20220524221806 72 133 1.7 0.0 0.00 0.00 0.00 81 1012.9
20220524221704 72 130 0.0 0.0 0.00 0.00 0.00 80 1013.0
20220524221604 72 131 0.9 0.0 0.00 0.00 0.00 81 1012.9
20220524221505 72 140 2.6 0.0 0.00 0.00 0.00 80 1013.0
20220524221402 72 147 6.1 0.0 0.00 0.00 0.00 81 1012.9
20220524221304 72 119 4.3 0.0 0.00 0.00 0.00 80 1013.1
20220524221202 72 115 0.0 0.0 0.00 0.00 0.00 80 1012.9
20220524221106 72 181 2.6 0.0 0.00 0.00 0.00 80 1013.0
20220524221006 71 131 6.1 0.0 0.00 0.00 0.00 80 1013.0
20220524220904 71 105 2.6 0.0 0.00 0.00 0.00 81 1013.0
20220524220803 71 71 0.9 0.0 0.00 0.00 0.00 81 1012.9
20220524220703 71 121 0.0 0.0 0.00 0.00 0.00 81 1013.0
20220524220602 71 121 0.0 0.0 0.00 0.00 0.00 81 1012.9
20220524220504 71 121 1.7 0.0 0.00 0.00 0.00 80 1013.0
20220524220403 71 141 2.6 0.0 0.00 0.00 0.00 80 1013.1
20220524220300 71 134 2.6 0.0 0.00 0.00 0.00 80 1013.0
20220524220156 71 158 7.8 0.0 0.00 0.00 0.00 81 1013.0
20220524220055 71 160 0.0 0.0 0.00 0.00 0.00 81 1013.1
20220524215954 71 167 0.0 0.0 0.00 0.00 0.00 81 1013.1
20220524215855 71 105 1.7 0.0 0.00 0.00 0.00 81 1013.1
20220524215801 71 122 0.0 0.0 0.00 0.00 0.00 81 1013.2
20220524215702 71 137 0.0 0.0 0.00 0.00 0.00 81 1013.2
20220524215601 71 54 0.9 0.0 0.00 0.00 0.00 81 1013.3
20220524215500 71 141 1.7 0.0 0.00 0.00 0.00 81 1013.2
20220524215357 71 80 0.9 0.0 0.00 0.00 0.00 80 1013.2
20220524215255 71 101 3.5 0.0 0.00 0.00 0.00 80 1013.3
20220524215156 71 155 5.2 0.0 0.00 0.00 0.00 80 1013.4
20220524215057 71 137 7.8 0.0 0.00 0.00 0.00 80 1013.4
20220524214954 71 128 5.2 0.0 0.00 0.00 0.00 80 1013.3
20220524214853 71 151 0.9 0.0 0.00 0.00 0.00 80 1013.4
20220524214753 71 135 5.2 0.0 0.00 0.00 0.00 81 1013.5
20220524214653 71 133 2.6 0.0 0.00 0.00 0.00 81 1013.4
20220524214552 71 132 0.0 0.0 0.00 0.00 0.00 80 1013.4
20220524214454 71 132 0.9 0.0 0.00 0.00 0.00 80 1013.4
20220524214353 71 140 7.8 0.0 0.00 0.00 0.00 81 1013.5
20220524214254 71 127 2.6 0.0 0.00 0.00 0.00 81 1013.5
20220524214151 71 137 1.7 0.0 0.00 0.00 0.00 81 1013.5
20220524214051 71 113 5.2 0.0 0.00 0.00 0.00 81 1013.4
20220524213952 71 135 6.1 0.0 0.00 0.00 0.00 81 1013.4
20220524213853 70 137 0.0 0.0 0.00 0.00 0.00 80 1013.6
20220524213752 70 133 2.6 0.0 0.00 0.00 0.00 80 1013.4
20220524213650 70 145 3.5 0.0 0.00 0.00 0.00 81 1013.6
20220524213549 70 145 0.0 0.0 0.00 0.00 0.00 80 1013.5
20220524213509 70 145 3.5 0.0 0.00 0.00 0.00 80 1013.5
20220524213407 70 140 5.2 0.0 0.00 0.00 0.00 80 1013.6
20220524213308 70 139 0.0 0.0 0.00 0.00 0.00 80 1013.5
20220524213150 70 127 5.2 0.0 0.00 0.00 0.00 80 1013.5
20220524213050 70 168 6.1 0.0 0.00 0.00 0.00 80 1013.6
20220524212949 70 130 4.3 0.0 0.00 0.00 0.00 80 1013.5
20220524212848 70 140 4.3 0.0 0.00 0.00 0.00 80 1013.6
20220524212750 70 35 0.9 0.0 0.00 0.00 0.00 80 1013.5
20220524212707 70 53 2.6 0.0 0.00 0.00 0.00 80 1013.5
20220524212548 71 109 4.3 0.0 0.00 0.00 0.00 80 1013.8
20220524212509 71 101 1.7 0.0 0.00 0.00 0.00 80 1013.6
20220524212406 71 101 1.7 0.0 0.00 0.00 0.00 80 1013.5
20220524212304 71 79 2.6 0.0 0.00 0.00 0.00 80 1013.6
20220524212203 71 35 0.0 0.0 0.00 0.00 0.00 80 1013.5
20220524212101 71 43 4.3 0.0 0.00 0.00 0.00 80 1013.5
20220524212000 71 75 0.9 0.0 0.00 0.00 0.00 80 1013.5
20220524211859 71 131 0.9 0.0 0.00 0.00 0.00 80 1013.4
20220524211758 71 105 0.0 0.0 0.00 0.00 0.00 80 1013.4
20220524211659 71 119 0.0 0.0 0.00 0.00 0.00 80 1013.4
20220524211556 71 119 1.7 0.0 0.00 0.00 0.00 80 1013.5
20220524211455 71 145 0.9 0.0 0.00 0.00 0.00 79 1013.6
20220524211355 71 139 4.3 0.0 0.00 0.00 0.00 80 1013.7
20220524211255 71 148 0.9 0.0 0.00 0.00 0.00 79 1013.7
20220524211157 71 122 2.6 0.0 0.00 0.00 0.00 80 1013.7
20220524211059 71 138 4.3 0.0 0.00 0.00 0.00 79 1013.6
20220524210956 71 129 0.0 0.0 0.00 0.00 0.00 80 1013.8
20220524210853 70 145 2.6 0.0 0.00 0.00 0.00 79 1013.7
20220524210753 70 96 2.6 0.0 0.00 0.00 0.00 81 1013.8
20220524210653 70 95 0.0 0.0 0.00 0.00 0.00 80 1013.9
20220524210556 70 116 0.0 0.0 0.00 0.00 0.00 79 1013.8
20220524210458 70 103 0.0 0.0 0.00 0.00 0.00 79 1013.9
20220524210356 70 109 0.0 0.0 0.00 0.00 0.00 79 1014.0
20220524210255 70 104 0.0 0.0 0.00 0.00 0.00 78 1014.1
20220524210156 69 127 0.0 0.0 0.00 0.00 0.00 78 1014.1
20220524210055 69 125 1.7 0.0 0.00 0.00 0.00 79 1014.1
20220524205954 69 144 3.5 0.0 0.00 0.00 0.00 79 1014.1
20220524205859 69 149 0.0 0.0 0.00 0.00 0.00 79 1014.0
20220524205757 69 149 1.7 0.0 0.00 0.00 0.00 79 1014.2
20220524205657 69 16 0.0 0.0 0.00 0.00 0.00 81 1014.2
20220524205559 69 16 0.0 0.0 0.00 0.00 0.00 80 1014.1
20220524205455 69 16 0.9 0.0 0.00 0.00 0.00 80 1014.1
20220524205353 69 53 2.6 0.0 0.00 0.00 0.00 81 1014.2
20220524205258 69 136 0.0 0.0 0.00 0.00 0.00 81 1014.3
20220524205157 69 136 0.0 0.0 0.00 0.00 0.00 80 1014.4
20220524205056 68 136 0.0 0.0 0.00 0.00 0.00 82 1014.4
20220524204953 68 136 1.7 0.0 0.00 0.00 0.00 82 1014.4
20220524204854 68 131 2.6 0.0 0.00 0.00 0.00 82 1014.4
20220524204753 68 124 0.0 0.0 0.00 0.00 0.00 82 1014.4
20220524204652 68 126 1.7 0.0 0.00 0.00 0.00 82 1014.5
20220524204556 68 145 0.0 0.0 0.00 0.00 0.00 81 1014.6
20220524204454 68 145 0.0 0.0 0.00 0.00 0.00 81 1014.6
20220524204355 68 145 0.9 0.0 0.00 0.00 0.00 80 1014.6
20220524204254 67 104 2.6 0.0 0.00 0.00 0.00 80 1014.7
20220524204152 67 145 4.3 0.0 0.00 0.00 0.00 80 1014.9
20220524204051 67 131 6.1 0.0 0.00 0.00 0.00 81 1014.7
20220524203956 67 136 5.2 0.0 0.00 0.00 0.00 81 1014.7
20220524203856 67 150 5.2 0.0 0.00 0.00 0.00 82 1014.7
20220524203755 67 132 0.9 0.0 0.00 0.00 0.00 82 1014.7
20220524203655 67 132 0.9 0.0 0.00 0.00 0.00 82 1015.0
20220524203554 67 132 1.7 0.0 0.00 0.00 0.00 82 1014.8
20220524203452 67 132 0.9 0.0 0.00 0.00 0.00 81 1015.0
20220524203351 67 132 2.6 0.0 0.00 0.00 0.00 81 1014.9
20220524203253 67 131 6.1 0.0 0.00 0.00 0.00 81 1015.0
20220524203151 67 135 5.2 0.0 0.00 0.00 0.00 81 1014.9
20220524203051 67 126 4.3 0.0 0.00 0.00 0.00 81 1014.9
20220524202949 67 159 3.5 0.0 0.00 0.00 0.00 81 1014.9
20220524202850 67 146 6.1 0.0 0.00 0.00 0.00 81 1015.0
20220524202749 67 164 2.6 0.0 0.00 0.00 0.00 81 1014.9
20220524202652 67 149 2.6 0.0 0.00 0.00 0.00 81 1015.0
20220524202551 67 150 0.9 0.0 0.00 0.00 0.00 81 1015.2
20220524202449 67 150 0.9 0.0 0.00 0.00 0.00 81 1015.2
20220524202348 67 151 0.0 0.0 0.00 0.00 0.00 81 1015.2
20220524202248 67 155 3.5 0.0 0.00 0.00 0.00 81 1015.2
20220524202208 67 155 3.5 0.0 0.00 0.00 0.00 81 1015.3
20220524202107 67 155 3.5 0.0 0.00 0.00 0.00 81 1015.1
20220524201951 67 148 4.3 0.0 0.00 0.00 0.00 81 1015.3
20220524201852 67 115 3.5 0.0 0.00 0.00 0.00 81 1015.2
20220524201807 67 142 5.2 0.0 0.00 0.00 0.00 80 1015.3
20220524201707 67 157 0.0 0.0 0.00 0.00 0.00 80 1015.2
20220524201607 67 133 8.7 0.0 0.00 0.00 0.00 80 1015.4
20220524201507 67 130 7.8 0.0 0.00 0.00 0.00 80 1015.2
20220524201348 67 137 5.2 0.0 0.00 0.00 0.00 80 1015.1
20220524201249 67 135 6.1 0.0 0.00 0.00 0.00 80 1015.2
20220524201148 67 132 3.5 0.0 0.00 0.00 0.00 80 1015.2
20220524201108 67 153 0.9 0.0 0.00 0.00 0.00 80 1015.2
20220524201008 67 153 7.0 0.0 0.00 0.00 0.00 80 1015.2
20220524200907 67 139 0.0 0.0 0.00 0.00 0.00 80 1015.2
20220524200807 67 139 0.0 0.0 0.00 0.00 0.00 80 1015.2
20220524200649 67 140 0.0 0.0 0.00 0.00 0.00 80 1015.2
20220524200608 67 140 2.6 0.0 0.00 0.00 0.00 80 1015.1
20220524200507 67 141 0.9 0.0 0.00 0.00 0.00 80 1015.2
20220524200405 67 141 0.0 0.0 0.00 0.00 0.00 80 1015.2
20220524200302 67 141 0.0 0.0 0.00 0.00 0.00 80 1015.1
20220524200203 67 139 6.1 0.0 0.00 0.00 0.00 80 1015.1
20220524200101 67 137 2.6 0.0 0.00 0.00 0.00 80 1015.3
20220524200005 67 136 0.9 0.0 0.00 0.00 0.00 80 1015.3
20220524195907 67 149 6.1 0.0 0.00 0.00 0.00 80 1015.3
20220524195807 67 166 3.5 0.0 0.00 0.00 0.00 80 1015.3
20220524195705 67 136 0.0 0.0 0.00 0.00 0.00 80 1015.3
20220524195604 67 132 6.1 0.0 0.00 0.00 0.00 81 1015.3
20220524195503 67 180 2.6 0.0 0.00 0.00 0.00 81 1015.4
20220524195404 67 153 6.1 0.0 0.00 0.00 0.00 81 1015.5
20220524195304 67 148 1.7 0.0 0.00 0.00 0.00 81 1015.2
20220524195203 67 162 1.7 0.0 0.00 0.00 0.00 80 1015.3
20220524195101 66 136 2.6 0.0 0.00 0.00 0.00 80 1015.3
20220524195002 67 129 4.3 0.0 0.00 0.00 0.00 80 1015.4
20220524194859 67 114 1.7 0.0 0.00 0.00 0.00 80 1015.5
20220524194756 66 138 5.2 0.0 0.00 0.00 0.00 80 1015.6
20220524194700 66 67 2.6 0.0 0.00 0.00 0.00 80 1015.4
20220524194558 66 142 7.0 0.0 0.00 0.00 0.00 80 1015.4
20220524194456 66 138 7.0 0.0 0.00 0.00 0.00 80 1015.5
20220524194354 66 146 1.7 0.0 0.00 0.00 0.00 80 1015.5
20220524194255 66 136 1.7 0.0 0.00 0.00 0.00 80 1015.5
20220524194155 66 134 4.3 0.0 0.00 0.00 0.00 80 1015.6
20220524194058 66 81 0.0 0.0 0.00 0.00 0.00 80 1015.4
20220524193958 66 143 9.6 0.0 0.00 0.00 0.00 81 1015.5
20220524193858 66 158 0.0 0.0 0.00 0.00 0.00 81 1015.6
20220524193757 66 157 1.7 0.0 0.00 0.00 0.00 80 1015.6
20220524193656 66 141 7.0 0.0 0.00 0.00 0.00 81 1015.7
20220524193555 66 148 0.9 0.0 0.00 0.00 0.00 80 1015.6
20220524193455 66 135 3.5 0.0 0.00 0.00 0.00 81 1015.6
20220524193359 66 136 6.1 0.0 0.00 0.00 0.00 81 1015.6
20220524193255 66 69 0.9 0.0 0.00 0.00 0.00 81 1015.7
20220524193152 66 125 0.9 0.0 0.00 0.00 0.00 81 1015.6
20220524193052 66 126 1.7 0.0 0.00 0.00 0.00 81 1015.7
20220524192950 66 135 5.2 0.0 0.00 0.00 0.00 81 1015.7
20220524192909 66 142 7.0 0.0 0.00 0.00 0.00 81 1015.6
20220524192752 66 79 4.3 0.0 0.00 0.00 0.00 81 1015.7
20220524192649 66 36 4.3 0.0 0.00 0.00 0.00 82 1015.7
20220524192610 66 86 0.0 0.0 0.00 0.00 0.00 82 1015.7
20220524192507 66 102 0.0 0.0 0.00 0.00 0.00 82 1015.7
20220524192406 66 102 0.0 0.0 0.00 0.00 0.00 82 1015.8
20220524192305 66 102 0.0 0.0 0.00 0.00 0.00 81 1015.8
20220524192204 66 108 0.0 0.0 0.00 0.00 0.00 81 1015.9
20220524192047 66 156 0.9 0.0 0.00 0.00 0.00 82 1015.9
20220524191948 66 156 0.0 0.0 0.00 0.00 0.00 82 1016.0
20220524191850 65 155 1.7 0.0 0.00 0.00 0.00 82 1016.0
20220524191807 65 99 3.5 0.0 0.00 0.00 0.00 82 1016.0
20220524191707 65 93 0.9 0.0 0.00 0.00 0.00 82 1016.0
20220524191607 65 141 0.0 0.0 0.00 0.00 0.00 82 1016.1
20220524191503 65 147 0.0 0.0 0.00 0.00 0.00 81 1016.1
20220524191407 65 109 0.0 0.0 0.00 0.00 0.00 82 1016.1
20220524191306 65 126 1.7 0.0 0.00 0.00 0.00 81 1016.2
20220524191205 65 144 3.5 0.0 0.00 0.00 0.00 81 1016.1
20220524191104 65 143 7.0 0.0 0.00 0.00 0.00 81 1016.1
20220524191003 65 147 5.2 0.0 0.00 0.00 0.00 81 1016.1
20220524190902 65 153 0.0 0.0 0.00 0.00 0.00 81 1016.1
20220524190805 65 153 0.9 0.0 0.00 0.00 0.00 81 1016.2
20220524190705 65 128 6.1 0.0 0.00 0.00 0.00 81 1016.1
20220524190605 65 144 6.1 0.0 0.00 0.00 0.00 81 1016.0
20220524190508 65 123 4.3 0.0 0.00 0.00 0.00 81 1016.1
20220524190407 65 95 4.3 0.0 0.00 0.00 0.00 81 1016.1
20220524190306 65 122 4.3 0.0 0.00 0.00 0.00 81 1016.1
20220524190149 65 135 0.0 0.0 0.00 0.00 0.00 80 1016.3
20220524190111 65 139 2.6 0.0 0.00 0.00 0.00 80 1016.2
20220524190008 65 143 7.0 0.0 0.00 0.00 0.00 81 1016.3
20220524185904 65 124 0.0 0.0 0.00 0.00 0.00 81 1016.1
20220524185803 65 140 1.7 0.0 0.00 0.00 0.00 81 1016.2
20220524185703 65 129 1.7 0.0 0.00 0.00 0.00 81 1016.2
20220524185603 66 128 1.7 0.0 0.00 0.00 0.00 81 1016.1
20220524185450 66 130 5.2 0.0 0.00 0.00 0.00 80 1016.0
20220524185348 66 57 6.1 0.0 0.00 0.00 0.00 81 1016.1
20220524185248 66 124 0.0 0.0 0.00 0.00 0.00 80 1016.2
20220524185209 66 125 4.3 0.0 0.00 0.00 0.00 81 1016.2
20220524185105 66 151 4.3 0.0 0.00 0.00 0.00 81 1016.2
20220524185003 66 66 0.0 0.0 0.00 0.00 0.00 81 1016.2
20220524184905 66 66 1.7 0.0 0.00 0.00 0.00 81 1016.3
20220524184807 66 67 0.9 0.0 0.00 0.00 0.00 81 1016.3
20220524184708 66 66 0.0 0.0 0.00 0.00 0.00 81 1016.2
20220524184606 66 82 0.0 0.0 0.00 0.00 0.00 81 1016.2
20220524184506 66 82 0.0 0.0 0.00 0.00 0.00 81 1016.2
20220524184402 66 82 1.7 0.0 0.00 0.00 0.00 81 1016.2
20220524184302 66 68 3.5 0.0 0.00 0.00 0.00 80 1016.3
20220524184205 66 130 0.0 0.0 0.00 0.00 0.00 80 1016.3
20220524184107 66 146 6.1 0.0 0.00 0.00 0.00 80 1016.3
20220524184003 66 134 0.0 0.0 0.00 0.00 0.00 80 1016.4
20220524183902 66 30 2.6 0.0 0.00 0.00 0.00 80 1016.4
20220524183802 66 113 0.0 0.0 0.00 0.00 0.00 80 1016.5
20220524183701 66 123 6.1 0.0 0.00 0.00 0.00 80 1016.5
20220524183559 66 127 4.3 0.0 0.00 0.00 0.00 80 1016.4
20220524183506 66 75 1.7 0.0 0.00 0.00 0.00 80 1016.5
20220524183404 66 81 2.6 0.0 0.00 0.00 0.00 80 1016.3
20220524183304 66 86 4.3 0.0 0.00 0.00 0.00 80 1016.4
20220524183203 66 133 0.9 0.0 0.00 0.00 0.00 80 1016.4
20220524183102 66 136 1.7 0.0 0.00 0.00 0.00 80 1016.4
20220524183003 66 105 1.7 0.0 0.00 0.00 0.00 80 1016.4
20220524182907 66 132 3.5 0.0 0.00 0.00 0.00 79 1016.3
20220524182807 66 117 7.8 0.0 0.00 0.00 0.00 79 1016.3
20220524182705 66 121 0.0 0.0 0.00 0.00 0.00 79 1016.3
20220524182605 66 113 3.5 0.0 0.00 0.00 0.00 79 1016.3
20220524182504 66 41 1.7 0.0 0.00 0.00 0.00 80 1016.3
20220524182402 66 41 2.6 0.0 0.00 0.00 0.00 79 1016.3
20220524182302 66 136 3.5 0.0 0.00 0.00 0.00 79 1016.4
20220524182206 66 142 3.5 0.0 0.00 0.00 0.00 79 1016.4
20220524182105 66 98 1.7 0.0 0.00 0.00 0.00 80 1016.4
20220524182003 66 120 5.2 0.0 0.00 0.00 0.00 80 1016.5
20220524181903 66 123 3.5 0.0 0.00 0.00 0.00 80 1016.3
20220524181801 66 128 6.1 0.0 0.00 0.00 0.00 80 1016.4
20220524181700 66 39 2.6 0.0 0.00 0.00 0.00 81 1016.5
20220524181605 66 122 0.0 0.0 0.00 0.00 0.00 80 1016.6
20220524181506 66 121 0.0 0.0 0.00 0.00 0.00 79 1016.5
20220524181404 66 121 0.0 0.0 0.00 0.00 0.00 79 1016.6
20220524181305 66 121 0.0 0.0 0.00 0.00 0.00 79 1016.6
20220524181204 66 130 0.0 0.0 0.00 0.00 0.00 80 1016.6
20220524181105 66 130 0.0 0.0 0.00 0.00 0.00 80 1016.5
20220524181004 66 130 0.0 0.0 0.00 0.00 0.00 80 1016.6
20220524180905 66 89 0.0 0.0 0.00 0.00 0.00 80 1016.6
20220524180802 66 120 0.9 0.0 0.00 0.00 0.00 80 1016.6
20220524180703 66 143 0.0 0.0 0.00 0.00 0.00 80 1016.6
20220524180602 66 143 0.0 0.0 0.00 0.00 0.00 80 1016.6
20220524180501 66 143 0.9 0.0 0.00 0.00 0.00 80 1016.6
20220524180402 66 116 1.7 0.0 0.00 0.00 0.00 80 1016.6
20220524180305 66 79 7.0 0.0 0.00 0.00 0.00 80 1016.7
20220524180203 65 80 3.5 0.0 0.00 0.00 0.00 80 1016.7
20220524180103 65 101 0.0 0.0 0.00 0.00 0.00 80 1016.7
20220524180003 65 25 0.9 0.0 0.00 0.00 0.00 80 1016.6
20220524175859 65 43 0.0 0.0 0.00 0.00 0.00 81 1016.6
20220524175800 65 51 2.6 0.0 0.00 0.00 0.00 81 1016.6
20220524175658 65 121 2.6 0.0 0.00 0.00 0.00 81 1016.7
20220524175602 65 112 2.6 0.0 0.00 0.00 0.00 81 1016.6
20220524175503 65 133 1.7 0.0 0.00 0.00 0.00 80 1016.6
20220524175402 65 145 5.2 0.0 0.00 0.00 0.00 81 1016.7
20220524175301 65 93 2.6 0.0 0.00 0.00 0.00 80 1016.8
20220524175201 65 139 2.6 0.0 0.00 0.00 0.00 81 1016.7
20220524175059 65 137 0.9 0.0 0.00 0.00 0.00 81 1016.8
20220524175001 65 143 1.7 0.0 0.00 0.00 0.00 80 1016.9
20220524174902 65 111 2.6 0.0 0.00 0.00 0.00 81 1016.9
20220524174802 65 160 0.0 0.0 0.00 0.00 0.00 81 1016.9
20220524174659 65 113 0.0 0.0 0.00 0.00 0.00 81 1016.9
20220524174557 65 113 0.0 0.0 0.00 0.00 0.00 81 1016.9
20220524174456 65 136 4.3 0.0 0.00 0.00 0.00 81 1016.9
20220524174357 65 121 3.5 0.0 0.00 0.00 0.00 81 1016.8
20220524174301 65 58 1.7 0.0 0.00 0.00 0.00 80 1016.9
20220524174159 65 140 5.2 0.0 0.00 0.00 0.00 80 1016.9
20220524174056 65 128 6.1 0.0 0.00 0.00 0.00 81 1016.9
20220524173956 65 118 2.6 0.0 0.00 0.00 0.00 80 1016.9
20220524173855 65 101 3.5 0.0 0.00 0.00 0.00 80 1017.1
20220524173753 65 144 8.7 0.0 0.00 0.00 0.00 81 1016.9
20220524173658 65 151 7.8 0.0 0.00 0.00 0.00 80 1017.1
20220524173558 65 142 4.3 0.0 0.00 0.00 0.00 81 1017.0
20220524173458 65 132 3.5 0.0 0.00 0.00 0.00 80 1017.1
20220524173358 65 141 4.3 0.0 0.00 0.00 0.00 80 1017.1
20220524173259 65 114 2.6 0.0 0.00 0.00 0.00 80 1017.1
20220524173158 65 68 1.7 0.0 0.00 0.00 0.00 80 1017.2
20220524173055 65 142 1.7 0.0 0.00 0.00 0.00 80 1017.2
20220524173000 65 148 2.6 0.0 0.00 0.00 0.00 80 1017.2
20220524172859 65 132 5.2 0.0 0.00 0.00 0.00 80 1017.4
20220524172757 65 135 8.7 0.0 0.00 0.00 0.00 80 1017.3
20220524172657 65 144 0.0 0.0 0.00 0.00 0.00 80 1017.3
20220524172556 65 147 0.0 0.0 0.00 0.00 0.00 79 1017.3
20220524172455 65 135 3.5 0.0 0.00 0.00 0.00 79 1017.2
20220524172359 65 141 0.0 0.0 0.00 0.00 0.00 79 1017.3
20220524172258 65 142 1.7 0.0 0.00 0.00 0.00 79 1017.2
20220524172202 65 155 6.1 0.0 0.00 0.00 0.00 79 1017.2
20220524172100 65 120 0.0 0.0 0.00 0.00 0.00 80 1017.2
20220524171959 65 120 0.0 0.0 0.00 0.00 0.00 79 1017.2
20220524171858 65 120 0.9 0.0 0.00 0.00 0.00 79 1017.2
20220524171757 65 154 7.0 0.0 0.00 0.00 0.00 79 1017.2
20220524171701 65 147 6.1 0.0 0.00 0.00 0.00 79 1017.2
20220524171600 65 135 4.3 0.0 0.00 0.00 0.00 79 1017.1
20220524171500 65 136 4.3 0.0 0.00 0.00 0.00 79 1017.2
20220524171359 65 142 3.5 0.0 0.00 0.00 0.00 79 1017.2
20220524171258 65 136 8.7 0.0 0.00 0.00 0.00 79 1017.2
20220524171159 65 135 7.0 0.0 0.00 0.00 0.00 79 1017.2
20220524171101 65 144 6.1 0.0 0.00 0.00 0.00 79 1017.3
20220524171001 65 103 4.3 0.0 0.00 0.00 0.00 78 1017.3
20220524170902 65 140 7.8 0.0 0.00 0.00 0.00 79 1017.3
20220524170759 65 132 3.5 0.0 0.00 0.00 0.00 79 1017.3
20220524170658 65 173 0.0 0.0 0.00 0.00 0.00 79 1017.3
20220524170559 65 143 0.0 0.0 0.00 0.00 0.00 79 1017.3
20220524170457 65 143 0.9 0.0 0.00 0.00 0.00 79 1017.3
20220524170400 65 132 4.3 0.0 0.00 0.00 0.00 79 1017.3
20220524170300 65 144 5.2 0.0 0.00 0.00 0.00 79 1017.3
20220524170157 65 126 0.0 0.0 0.00 0.00 0.00 79 1017.5
20220524170055 65 124 4.3 0.0 0.00 0.00 0.00 79 1017.5
20220524165954 65 124 0.0 0.0 0.00 0.00 0.00 78 1017.4
20220524165851 65 141 8.7 0.0 0.00 0.00 0.00 78 1017.3
20220524165753 65 106 0.0 0.0 0.00 0.00 0.00 79 1017.4
20220524165653 65 162 0.0 0.0 0.00 0.00 0.00 78 1017.6
20220524165553 65 110 4.3 0.0 0.00 0.00 0.00 78 1017.5
20220524165452 65 33 0.9 0.0 0.00 0.00 0.00 78 1017.5
20220524165351 65 29 0.0 0.0 0.00 0.00 0.00 78 1017.5
20220524165309 65 35 4.3 0.0 0.00 0.00 0.00 78 1017.4
20220524165208 65 120 2.6 0.0 0.00 0.00 0.00 78 1017.5
20220524165051 65 105 0.9 0.0 0.00 0.00 0.00 78 1017.4
20220524164951 66 152 7.0 0.0 0.00 0.00 0.00 78 1017.4
20220524164851 66 105 2.6 0.0 0.00 0.00 0.00 78 1017.4
20220524164749 66 127 5.2 0.0 0.00 0.00 0.00 78 1017.4
20220524164649 65 135 0.0 0.0 0.00 0.00 0.00 78 1017.5
20220524164549 65 135 0.0 0.0 0.00 0.00 0.00 78 1017.4
20220524164455 65 136 0.0 0.0 0.00 0.00 0.00 78 1017.4
20220524164353 65 134 4.3 0.0 0.00 0.00 0.00 77 1017.4
20220524164251 65 71 0.0 0.0 0.00 0.00 0.00 77 1017.4
20220524164150 65 93 0.9 0.0 0.00 0.00 0.00 77 1017.5
20220524164110 66 99 0.0 0.0 0.00 0.00 0.00 78 1017.5
20220524164008 66 103 2.6 0.0 0.00 0.00 0.00 77 1017.5
20220524163907 66 61 0.9 0.0 0.00 0.00 0.00 77 1017.5
20220524163808 66 155 0.0 0.0 0.00 0.00 0.00 77 1017.5
20220524163708 66 151 3.5 0.0 0.00 0.00 0.00 77 1017.5
20220524163606 66 129 1.7 0.0 0.00 0.00 0.00 78 1017.4
20220524163507 66 134 4.3 0.0 0.00 0.00 0.00 78 1017.5
20220524163407 66 56 0.0 0.0 0.00 0.00 0.00 78 1017.6
20220524163306 66 53 0.0 0.0 0.00 0.00 0.00 77 1017.5
20220524163150 66 120 0.0 0.0 0.00 0.00 0.00 77 1017.7
20220524163048 66 140 1.7 0.0 0.00 0.00 0.00 77 1017.5
20220524163009 66 54 2.6 0.0 0.00 0.00 0.00 77 1017.6
20220524162906 66 85 2.6 0.0 0.00 0.00 0.00 77 1017.6
20220524162748 65 118 0.0 0.0 0.00 0.00 0.00 77 1017.5
20220524162709 65 95 0.9 0.0 0.00 0.00 0.00 77 1017.5
20220524162607 65 48 1.7 0.0 0.00 0.00 0.00 78 1017.7
20220524162448 65 122 0.9 0.0 0.00 0.00 0.00 78 1017.6
20220524162349 65 138 7.0 0.0 0.00 0.00 0.00 78 1017.6
20220524162308 65 125 0.0 0.0 0.00 0.00 0.00 78 1017.5
20220524162208 65 125 0.0 0.0 0.00 0.00 0.00 78 1017.6
20220524162049 65 110 0.0 0.0 0.00 0.00 0.00 78 1017.5
20220524162006 65 110 0.0 0.0 0.00 0.00 0.00 78 1017.5
20220524161852 65 106 2.6 0.0 0.00 0.00 0.00 78 1017.7
20220524161752 65 313 0.0 0.0 0.00 0.00 0.00 78 1017.7
20220524161653 65 75 0.0 0.0 0.00 0.00 0.00 79 1017.7
20220524161551 65 74 0.0 0.0 0.00 0.00 0.00 78 1017.7
20220524161452 65 75 0.0 0.0 0.00 0.00 0.00 78 1017.6
20220524161409 65 144 4.3 0.0 0.00 0.00 0.00 78 1017.6
20220524161309 65 143 0.0 0.0 0.00 0.00 0.00 78 1017.6
20220524161152 65 109 6.1 0.0 0.00 0.00 0.00 78 1017.7
20220524161051 65 123 0.0 0.0 0.00 0.00 0.00 79 1017.6
20220524160950 65 118 2.6 0.0 0.00 0.00 0.00 79 1017.7
20220524160847 65 115 2.6 0.0 0.00 0.00 0.00 78 1017.8
20220524160749 65 61 0.0 0.0 0.00 0.00 0.00 78 1017.9
20220524160707 65 56 0.0 0.0 0.00 0.00 0.00 78 1017.8
20220524160607 65 92 0.0 0.0 0.00 0.00 0.00 78 1017.8
20220524160508 65 97 0.0 0.0 0.00 0.00 0.00 78 1017.9
20220524160406 64 98 0.0 0.0 0.00 0.00 0.00 78 1017.9
20220524160307 64 111 0.0 0.0 0.00 0.00 0.00 78 1018.0
20220524160205 64 111 1.7 0.0 0.00 0.00 0.00 78 1018.1
20220524160105 64 111 0.0 0.0 0.00 0.00 0.00 78 1017.9
20220524160006 64 137 0.0 0.0 0.00 0.00 0.00 78 1018.0
20220524155910 64 136 1.7 0.0 0.00 0.00 0.00 77 1017.9
20220524155806 64 74 0.0 0.0 0.00 0.00 0.00 77 1017.8
20220524155704 64 117 10.4 0.0 0.00 0.00 0.00 77 1018.0
20220524155603 65 147 4.3 0.0 0.00 0.00 0.00 77 1018.0
20220524155503 65 137 3.5 0.0 0.00 0.00 0.00 77 1017.9
20220524155403 65 145 0.9 0.0 0.00 0.00 0.00 77 1017.9
20220524155303 65 150 2.6 0.0 0.00 0.00 0.00 77 1017.9
20220524155206 65 151 0.0 0.0 0.00 0.00 0.00 76 1018.0
20220524155106 65 128 5.2 0.0 0.00 0.00 0.00 75 1017.9
20220524155005 65 131 3.5 0.0 0.00 0.00 0.00 76 1017.9
20220524154904 65 121 5.2 0.0 0.00 0.00 0.00 76 1018.0
20220524154806 65 136 0.0 0.0 0.00 0.00 0.00 76 1017.9
20220524154707 65 113 5.2 0.0 0.00 0.00 0.00 77 1018.1
20220524154610 65 63 0.0 0.0 0.00 0.00 0.00 77 1018.0
20220524154508 65 63 0.0 0.0 0.00 0.00 0.00 77 1018.1
20220524154408 65 64 0.0 0.0 0.00 0.00 0.00 78 1018.0
20220524154306 65 66 0.0 0.0 0.00 0.00 0.00 78 1018.1
20220524154206 65 75 0.9 0.0 0.00 0.00 0.00 78 1018.1
20220524154104 65 142 2.6 0.0 0.00 0.00 0.00 78 1018.0
20220524153947 65 143 5.2 0.0 0.00 0.00 0.00 78 1018.1
20220524153849 65 43 0.9 0.0 0.00 0.00 0.00 79 1018.0
20220524153749 64 78 0.0 0.0 0.00 0.00 0.00 80 1017.9
20220524153708 64 122 0.0 0.0 0.00 0.00 0.00 79 1017.9
20220524153608 64 122 0.0 0.0 0.00 0.00 0.00 78 1017.9
20220524153507 64 122 0.0 0.0 0.00 0.00 0.00 78 1017.9
20220524153406 64 142 4.3 0.0 0.00 0.00 0.00 78 1018.1
20220524153250 64 164 6.1 0.0 0.00 0.00 0.00 79 1018.2
20220524153151 64 140 0.0 0.0 0.00 0.00 0.00 79 1018.2
20220524153052 64 133 0.0 0.0 0.00 0.00 0.00 79 1018.2
20220524152951 64 137 7.0 0.0 0.00 0.00 0.00 78 1018.1
20220524152848 64 150 7.8 0.0 0.00 0.00 0.00 78 1018.2
20220524152808 64 138 7.8 0.0 0.00 0.00 0.00 78 1018.1
20220524152652 64 154 2.6 0.0 0.00 0.00 0.00 78 1018.1
20220524152552 64 155 1.7 0.0 0.00 0.00 0.00 78 1018.1
20220524152453 64 140 0.9 0.0 0.00 0.00 0.00 78 1018.2
20220524152353 64 115 0.0 0.0 0.00 0.00 0.00 78 1018.0
20220524152251 64 136 1.7 0.0 0.00 0.00 0.00 78 1018.1
20220524152151 64 90 2.6 0.0 0.00 0.00 0.00 78 1017.9
20220524152050 64 105 0.9 0.0 0.00 0.00 0.00 78 1018.0
20220524151953 64 92 0.9 0.0 0.00 0.00 0.00 78 1018.0
20220524151855 64 53 0.0 0.0 0.00 0.00 0.00 79 1018.1
20220524151753 64 53 0.0 0.0 0.00 0.00 0.00 79 1018.2
20220524151713 64 53 0.0 0.0 0.00 0.00 0.00 79 1018.0
20220524151608 63 54 0.9 0.0 0.00 0.00 0.00 79 1018.0
20220524151505 63 111 0.0 0.0 0.00 0.00 0.00 79 1018.1
20220524151348 63 111 3.5 0.0 0.00 0.00 0.00 79 1018.2
20220524151248 63 110 0.0 0.0 0.00 0.00 0.00 79 1018.1
20220524151209 63 114 0.9 0.0 0.00 0.00 0.00 79 1018.2
20220524151109 63 159 3.5 0.0 0.00 0.00 0.00 79 1018.2
20220524151007 63 89 4.3 0.0 0.00 0.00 0.00 79 1018.3
20220524150906 63 31 0.0 0.0 0.00 0.00 0.00 79 1018.1
20220524150805 63 31 0.0 0.0 0.00 0.00 0.00 79 1018.1
20220524150706 63 35 0.0 0.0 0.00 0.00 0.00 79 1018.1
20220524150604 63 88 0.9 0.0 0.00 0.00 0.00 79 1018.2
20220524150505 63 92 0.0 0.0 0.00 0.00 0.00 79 1018.4
20220524150355 63 0 0.0 0.0 0.00 0.00 0.00 79 1018.4
20220524150254 63 45 7.0 0.0 0.00 0.00 0.00 79 1018.2
20220524150154 63 44 0.0 0.0 0.00 0.00 0.00 79 1018.2
20220524150053 63 44 0.0 0.0 0.00 0.00 0.00 79 1018.3
20220524145953 62 62 0.0 0.0 0.00 0.00 0.00 80 1018.3
20220524145853 62 129 0.0 0.0 0.00 0.00 0.00 79 1018.2
20220524145752 62 341 0.0 0.0 0.00 0.00 0.00 79 1018.3
20220524145652 62 356 0.0 0.0 0.00 0.00 0.00 79 1018.3
20220524145553 62 87 0.0 0.0 0.00 0.00 0.00 79 1018.3
20220524145453 62 90 0.0 0.0 0.00 0.00 0.00 79 1018.1
20220524145357 62 91 0.0 0.0 0.00 0.00 0.00 79 1018.2
20220524145256 62 94 0.0 0.0 0.00 0.00 0.00 79 1018.1
20220524145154 62 50 0.0 0.0 0.00 0.00 0.00 79 1018.2
20220524145051 62 103 0.0 0.0 0.00 0.00 0.00 79 1018.1
20220524145009 62 103 0.0 0.0 0.00 0.00 0.00 80 1018.2
20220524144847 62 103 0.0 0.0 0.00 0.00 0.00 79 1018.3
20220524144747 62 111 3.5 0.0 0.00 0.00 0.00 79 1018.5
20220524144652 62 115 7.0 0.0 0.00 0.00 0.00 80 1018.4
20220524144551 62 78 0.0 0.0 0.00 0.00 0.00 79 1018.4
20220524144510 62 29 0.0 0.0 0.00 0.00 0.00 80 1018.5
20220524144408 62 29 0.0 0.0 0.00 0.00 0.00 79 1018.4
20220524144305 62 37 3.5 0.0 0.00 0.00 0.00 80 1018.4
20220524144202 62 33 0.0 0.0 0.00 0.00 0.00 80 1018.3
20220524144102 62 33 0.0 0.0 0.00 0.00 0.00 79 1018.3
20220524144005 62 34 0.0 0.0 0.00 0.00 0.00 80 1018.5
20220524143904 62 148 0.0 0.0 0.00 0.00 0.00 80 1018.6
20220524143804 62 107 1.7 0.0 0.00 0.00 0.00 80 1018.7
20220524143705 62 143 0.0 0.0 0.00 0.00 0.00 79 1018.9
20220524143604 62 143 0.0 0.0 0.00 0.00 0.00 79 1018.9
20220524143503 62 143 1.7 0.0 0.00 0.00 0.00 79 1018.9
20220524143405 62 149 3.5 0.0 0.00 0.00 0.00 79 1019.0
20220524143306 62 149 1.7 0.0 0.00 0.00 0.00 79 1018.8
20220524143207 62 149 0.0 0.0 0.00 0.00 0.00 79 1018.8
20220524143106 62 149 0.0 0.0 0.00 0.00 0.00 79 1018.7
20220524143006 62 142 4.3 0.0 0.00 0.00 0.00 79 1018.8
20220524142906 62 127 2.6 0.0 0.00 0.00 0.00 79 1018.8
20220524142749 62 135 2.6 0.0 0.00 0.00 0.00 79 1019.0
20220524142649 62 133 0.0 0.0 0.00 0.00 0.00 79 1019.1
20220524142610 62 138 3.5 0.0 0.00 0.00 0.00 79 1019.0
20220524142509 62 137 0.0 0.0 0.00 0.00 0.00 79 1019.0
20220524142406 62 137 0.0 0.0 0.00 0.00 0.00 79 1018.9
20220524142308 62 137 1.7 0.0 0.00 0.00 0.00 80 1019.0
20220524142207 62 137 0.0 0.0 0.00 0.00 0.00 80 1018.9
20220524142051 62 137 0.0 0.0 0.00 0.00 0.00 80 1018.9
20220524141949 62 137 0.0 0.0 0.00 0.00 0.00 80 1018.9
20220524141849 62 137 0.0 0.0 0.00 0.00 0.00 80 1019.0
20220524141749 62 137 0.0 0.0 0.00 0.00 0.00 80 1018.8
20220524141708 62 126 1.7 0.0 0.00 0.00 0.00 80 1018.9
20220524141607 62 127 0.0 0.0 0.00 0.00 0.00 80 1018.9
20220524141451 61 126 2.6 0.0 0.00 0.00 0.00 81 1019.0
20220524141351 61 126 0.0 0.0 0.00 0.00 0.00 80 1019.0
20220524141252 61 126 0.9 0.0 0.00 0.00 0.00 81 1019.0
20220524141151 61 121 0.0 0.0 0.00 0.00 0.00 81 1018.9
20220524141109 61 118 1.7 0.0 0.00 0.00 0.00 80 1019.1
20220524141006 61 66 0.9 0.0 0.00 0.00 0.00 81 1019.1
20220524140905 61 122 0.0 0.0 0.00 0.00 0.00 81 1019.1
20220524140808 61 63 0.0 0.0 0.00 0.00 0.00 81 1018.9
20220524140707 61 53 0.0 0.0 0.00 0.00 0.00 81 1019.0
20220524140606 61 51 0.0 0.0 0.00 0.00 0.00 81 1019.0
20220524140506 61 51 0.0 0.0 0.00 0.00 0.00 81 1019.1
20220524140404 61 134 0.0 0.0 0.00 0.00 0.00 81 1019.0
20220524140302 60 134 0.0 0.0 0.00 0.00 0.00 81 1019.1
20220524140202 60 134 0.0 0.0 0.00 0.00 0.00 81 1019.0
20220524140106 60 133 0.0 0.0 0.00 0.00 0.00 81 1018.9
20220524140005 60 37 0.0 0.0 0.00 0.00 0.00 81 1019.1
20220524135904 60 37 0.0 0.0 0.00 0.00 0.00 81 1018.9
20220524135803 60 37 0.0 0.0 0.00 0.00 0.00 81 1018.9
20220524135702 60 37 0.0 0.0 0.00 0.00 0.00 81 1018.9
20220524135601 60 44 2.6 0.0 0.00 0.00 0.00 81 1019.1
20220524135505 60 46 0.0 0.0 0.00 0.00 0.00 81 1019.1
20220524135402 60 49 0.9 0.0 0.00 0.00 0.00 81 1019.0
20220524135302 60 21 0.0 0.0 0.00 0.00 0.00 81 1019.1
20220524135201 60 21 0.0 0.0 0.00 0.00 0.00 82 1019.2
20220524135059 60 49 0.9 0.0 0.00 0.00 0.00 81 1019.1
20220524134957 60 55 0.0 0.0 0.00 0.00 0.00 82 1019.1
20220524134853 60 55 0.0 0.0 0.00 0.00 0.00 81 1019.0
20220524134756 60 55 0.0 0.0 0.00 0.00 0.00 81 1019.0
20220524134656 60 55 0.0 0.0 0.00 0.00 0.00 81 1019.1
20220524134555 60 55 0.0 0.0 0.00 0.00 0.00 81 1019.1
20220524134451 60 55 0.0 0.0 0.00 0.00 0.00 81 1019.1
20220524134351 60 55 1.7 0.0 0.00 0.00 0.00 81 1019.2
20220524134309 60 46 0.0 0.0 0.00 0.00 0.00 82 1019.2
20220524134150 60 46 0.0 0.0 0.00 0.00 0.00 82 1019.2
20220524134050 60 46 0.0 0.0 0.00 0.00 0.00 81 1019.1
20220524133950 60 46 0.0 0.0 0.00 0.00 0.00 81 1019.1
20220524133911 60 46 0.0 0.0 0.00 0.00 0.00 81 1019.3
20220524133808 60 46 0.0 0.0 0.00 0.00 0.00 81 1019.2
20220524133707 60 46 0.0 0.0 0.00 0.00 0.00 81 1019.1
20220524133606 60 46 0.0 0.0 0.00 0.00 0.00 81 1019.2
20220524133509 60 46 0.0 0.0 0.00 0.00 0.00 81 1019.0
20220524133406 60 46 2.6 0.0 0.00 0.00 0.00 81 1019.0
20220524133306 60 44 0.9 0.0 0.00 0.00 0.00 81 1019.1
20220524133203 60 87 0.0 0.0 0.00 0.00 0.00 81 1019.1
20220524133101 60 41 0.9 0.0 0.00 0.00 0.00 81 1019.0
20220524132959 60 41 0.0 0.0 0.00 0.00 0.00 81 1018.9
20220524132900 60 49 0.9 0.0 0.00 0.00 0.00 82 1019.0
20220524132801 60 116 0.0 0.0 0.00 0.00 0.00 81 1018.9
20220524132701 60 106 3.5 0.0 0.00 0.00 0.00 82 1019.1
20220524132600 60 32 0.9 0.0 0.00 0.00 0.00 82 1019.2
20220524132458 60 32 0.0 0.0 0.00 0.00 0.00 82 1018.9
20220524132355 60 32 0.0 0.0 0.00 0.00 0.00 82 1019.1